Time,TemperatureF,DewpointF,PressureIn,WindDirection,WindDirectionDegrees,WindSpeedMPH,WindSpeedGustMPH,Humidity,HourlyPrecipIn,Conditions,Clouds,dailyrainin,SoftwareType,DateUTC
2013-11-05 06:57:00,54.2,43.1,30.31,SSW,195,3.0,3.0,66,0.00,,---,0.01,VWS V13.01,2013-11-05 12:57:00,
2013-11-05 06:58:00,54.2,43.1,30.31,SSW,195,4.0,5.0,66,0.01,,---,0.01,VWS V13.01,2013-11-05 12:58:00,
2013-11-05 06:59:00,54.2,43.1,30.31,SSW,195,3.0,8.0,66,0.01,,---,0.01,VWS V13.01,2013-11-05 12:59:00,
2013-11-05 07:00:00,54.2,43.1,30.31,SSW,195,5.0,8.0,66,0.01,,---,0.01,VWS V13.01,2013-11-05 13:00:00,
2013-11-05 07:01:00,54.3,43.2,30.31,SSW,195,6.0,7.0,66,0.01,,---,0.01,VWS V13.01,2013-11-05 13:01:00,
2013-11-05 07:02:00,54.3,43.2,30.31,SSW,195,4.0,7.0,66,0.01,,---,0.01,VWS V13.01,2013-11-05 13:02:00,
2013-11-05 07:03:00,54.3,43.2,30.31,SSW,195,3.0,7.0,66,0.01,,---,0.01,VWS V13.01,2013-11-05 13:03:00,
2013-11-05 07:04:00,54.3,43.2,30.31,SSW,195,2.0,7.0,66,0.01,,---,0.01,VWS V13.01,2013-11-05 13:04:00,
2013-11-05 07:05:00,54.3,43.2,30.32,SSW,194,5.0,7.0,66,0.01,,---,0.01,VWS V13.01,2013-11-05 13:05:00,
2013-11-05 07:06:00,54.4,43.3,30.31,SSW,195,7.0,7.0,66,0.01,,---,0.01,VWS V13.01,2013-11-05 13:06:00,
2013-11-05 07:07:00,54.4,43.3,30.31,SSW,195,5.0,7.0,66,0.01,,---,0.01,VWS V13.01,2013-11-05 13:07:00,
2013-11-05 07:08:00,54.4,43.3,30.31,SSW,195,2.0,7.0,66,0.01,,---,0.01,VWS V13.01,2013-11-05 13:08:00,
2013-11-05 07:09:00,54.4,43.3,30.31,SSW,195,4.0,7.0,66,0.01,,---,0.01,VWS V13.01,2013-11-05 13:09:00,
2013-11-05 07:10:00,54.4,43.3,30.31,SSW,194,3.0,7.0,66,0.01,,---,0.01,VWS V13.01,2013-11-05 13:10:00,
2013-11-05 07:11:00,54.5,43.4,30.32,SSW,194,5.0,7.0,66,0.01,,---,0.01,VWS V13.01,2013-11-05 13:11:00,
2013-11-05 07:12:00,54.5,43.4,30.32,SSW,194,6.0,7.0,66,0.01,,---,0.01,VWS V13.01,2013-11-05 13:12:00,
2013-11-05 07:13:00,54.5,43.4,30.32,SSW,194,2.0,7.0,66,0.01,,---,0.01,VWS V13.01,2013-11-05 13:13:00,
2013-11-05 07:14:00,54.5,43.4,30.32,SSW,194,3.0,7.0,66,0.01,,---,0.01,VWS V13.01,2013-11-05 13:14:00,
2013-11-05 07:15:00,54.5,43.4,30.32,SSW,194,4.0,7.0,66,0.01,,---,0.01,VWS V13.01,2013-11-05 13:15:00,
2013-11-05 07:16:00,54.6,43.5,30.32,SSW,192,4.0,7.0,66,0.01,,---,0.01,VWS V13.01,2013-11-05 13:16:00,
2013-11-05 07:17:00,54.5,43.4,30.32,SSW,192,5.0,7.0,66,0.01,,---,0.01,VWS V13.01,2013-11-05 13:17:00,
2013-11-05 07:18:00,54.6,43.5,30.32,SSW,192,4.0,7.0,66,0.01,,---,0.01,VWS V13.01,2013-11-05 13:18:00,
2013-11-05 07:19:00,54.6,43.1,30.32,South,188,3.0,9.0,65,0.01,,---,0.01,VWS V13.01,2013-11-05 13:19:00,
2013-11-05 07:20:00,54.6,43.1,30.32,South,187,5.0,9.0,65,0.01,,---,0.01,VWS V13.01,2013-11-05 13:20:00,
2013-11-05 07:21:00,54.6,43.5,30.32,South,187,6.0,9.0,66,0.01,,---,0.01,VWS V13.01,2013-11-05 13:21:00,
2013-11-05 07:22:00,54.7,43.6,30.32,South,187,3.0,9.0,66,0.01,,---,0.01,VWS V13.01,2013-11-05 13:22:00,
2013-11-05 07:23:00,54.7,43.2,30.32,South,188,2.0,9.0,65,0.01,,---,0.01,VWS V13.01,2013-11-05 13:23:00,
2013-11-05 07:24:00,54.7,43.2,30.32,South,187,5.0,9.0,65,0.01,,---,0.01,VWS V13.01,2013-11-05 13:24:00,
2013-11-05 07:25:00,54.7,43.2,30.32,South,188,1.0,9.0,65,0.01,,---,0.01,VWS V13.01,2013-11-05 13:25:00,
2013-11-05 07:26:00,54.8,43.3,30.32,South,187,5.0,9.0,65,0.01,,---,0.01,VWS V13.01,2013-11-05 13:26:00,
2013-11-05 07:27:00,54.8,43.3,30.32,South,188,5.0,9.0,65,0.01,,---,0.01,VWS V13.01,2013-11-05 13:27:00,
2013-11-05 07:28:00,54.8,43.3,30.32,South,188,5.0,9.0,65,0.01,,---,0.01,VWS V13.01,2013-11-05 13:28:00,
2013-11-05 07:29:00,54.8,43.3,30.33,South,190,3.0,9.0,65,0.01,,---,0.01,VWS V13.01,2013-11-05 13:29:00,
2013-11-05 07:30:00,54.9,43.4,30.33,South,190,2.0,9.0,65,0.01,,---,0.01,VWS V13.01,2013-11-05 13:30:00,
2013-11-05 07:31:00,54.9,43.4,30.33,South,190,3.0,6.0,65,0.01,,---,0.01,VWS V13.01,2013-11-05 13:31:00,
2013-11-05 07:32:00,54.9,43.0,30.33,South,191,5.0,6.0,64,0.01,,---,0.01,VWS V13.01,2013-11-05 13:32:00,
2013-11-05 07:33:00,55.0,43.5,30.33,South,191,4.0,6.0,65,0.01,,---,0.01,VWS V13.01,2013-11-05 13:33:00,
2013-11-05 07:34:00,55.0,43.5,30.33,South,191,2.0,6.0,65,0.01,,---,0.01,VWS V13.01,2013-11-05 13:34:00,
2013-11-05 07:35:00,55.0,43.5,30.33,South,191,3.0,6.0,65,0.01,,---,0.01,VWS V13.01,2013-11-05 13:35:00,
2013-11-05 07:36:00,55.1,43.6,30.33,South,191,2.0,6.0,65,0.01,,---,0.01,VWS V13.01,2013-11-05 13:36:00,
2013-11-05 07:37:00,55.1,43.6,30.33,South,190,2.0,6.0,65,0.01,,---,0.01,VWS V13.01,2013-11-05 13:37:00,
2013-11-05 07:38:00,55.1,43.6,30.33,South,190,4.0,6.0,65,0.01,,---,0.01,VWS V13.01,2013-11-05 13:38:00,
2013-11-05 07:39:00,55.2,43.7,30.33,South,191,3.0,6.0,65,0.01,,---,0.01,VWS V13.01,2013-11-05 13:39:00,
2013-11-05 07:40:00,55.3,43.8,30.33,South,190,4.0,6.0,65,0.01,,---,0.01,VWS V13.01,2013-11-05 13:40:00,
2013-11-05 07:41:00,55.3,43.8,30.33,South,191,3.0,6.0,65,0.01,,---,0.01,VWS V13.01,2013-11-05 13:41:00,
2013-11-05 07:42:00,55.4,43.8,30.33,South,191,2.0,6.0,65,0.01,,---,0.01,VWS V13.01,2013-11-05 13:42:00,
2013-11-05 07:43:00,55.5,43.5,30.33,South,191,3.0,6.0,64,0.01,,---,0.01,VWS V13.01,2013-11-05 13:43:00,
2013-11-05 07:44:00,55.5,43.9,30.33,SSW,192,1.0,6.0,65,0.01,,---,0.01,VWS V13.01,2013-11-05 13:44:00,
2013-11-05 07:45:00,55.6,44.0,30.33,SSW,192,5.0,6.0,65,0.01,,---,0.01,VWS V13.01,2013-11-05 13:45:00,
2013-11-05 07:46:00,55.7,44.1,30.33,SSW,192,3.0,6.0,65,0.01,,---,0.01,VWS V13.01,2013-11-05 13:46:00,
2013-11-05 07:47:00,55.7,44.1,30.33,SSW,192,3.0,6.0,65,0.01,,---,0.01,VWS V13.01,2013-11-05 13:47:00,
2013-11-05 07:48:00,55.8,44.2,30.33,South,191,2.0,6.0,65,0.01,,---,0.01,VWS V13.01,2013-11-05 13:48:00,
2013-11-05 07:49:00,55.9,43.9,30.33,South,191,2.0,6.0,64,0.01,,---,0.01,VWS V13.01,2013-11-05 13:49:00,
2013-11-05 07:50:00,56.0,44.0,30.33,South,191,5.0,6.0,64,0.01,,---,0.01,VWS V13.01,2013-11-05 13:50:00,
2013-11-05 07:51:00,56.0,44.0,30.33,South,190,3.0,7.0,64,0.01,,---,0.01,VWS V13.01,2013-11-05 13:51:00,
2013-11-05 07:52:00,56.1,44.1,30.33,South,190,3.0,7.0,64,0.01,,---,0.01,VWS V13.01,2013-11-05 13:52:00,
2013-11-05 07:53:00,56.2,44.2,30.33,South,190,5.0,7.0,64,0.01,,---,0.01,VWS V13.01,2013-11-05 13:53:00,
2013-11-05 07:54:00,56.2,44.2,30.33,South,190,4.0,7.0,64,0.01,,---,0.01,VWS V13.01,2013-11-05 13:54:00,
2013-11-05 07:55:00,56.3,44.3,30.33,South,190,2.0,7.0,64,0.01,,---,0.01,VWS V13.01,2013-11-05 13:55:00,
2013-11-05 07:56:00,56.4,44.4,30.33,South,190,3.0,7.0,64,0.01,,---,0.01,VWS V13.01,2013-11-05 13:56:00,
2013-11-05 07:57:00,56.4,44.0,30.33,South,190,1.0,7.0,63,0.01,,---,0.01,VWS V13.01,2013-11-05 13:57:00,
2013-11-05 07:58:00,56.5,44.5,30.33,SSW,192,6.0,7.0,64,0.01,,---,0.01,VWS V13.01,2013-11-05 13:58:00,
2013-11-05 07:59:00,56.6,44.6,30.33,SSW,193,4.0,7.0,64,0.01,,---,0.01,VWS V13.01,2013-11-05 13:59:00,
2013-11-05 08:00:00,56.6,44.2,30.33,SSW,192,3.0,7.0,63,0.01,,---,0.01,VWS V13.01,2013-11-05 14:00:00,
2013-11-05 08:01:00,56.7,44.3,30.33,SSW,194,4.0,6.0,63,0.01,,---,0.01,VWS V13.01,2013-11-05 14:01:00,
2013-11-05 08:02:00,56.7,43.8,30.33,SSW,194,4.0,7.0,62,0.00,,---,0.01,VWS V13.01,2013-11-05 14:02:00,
2013-11-05 08:03:00,56.7,44.3,30.33,SSW,194,5.0,8.0,63,0.00,,---,0.01,VWS V13.01,2013-11-05 14:03:00,
2013-11-05 08:04:00,56.8,44.3,30.33,SSW,194,4.0,8.0,63,0.00,,---,0.01,VWS V13.01,2013-11-05 14:04:00,
2013-11-05 08:05:00,56.9,44.0,30.33,SSW,194,2.0,8.0,62,0.00,,---,0.01,VWS V13.01,2013-11-05 14:05:00,
2013-11-05 08:06:00,56.9,44.0,30.33,SSW,193,2.0,8.0,62,0.00,,---,0.01,VWS V13.01,2013-11-05 14:06:00,
2013-11-05 08:07:00,57.1,44.6,30.33,SSW,194,3.0,8.0,63,0.00,,---,0.01,VWS V13.01,2013-11-05 14:07:00,
2013-11-05 08:08:00,57.1,44.2,30.33,SSW,194,6.0,8.0,62,0.00,,---,0.01,VWS V13.01,2013-11-05 14:08:00,
2013-11-05 08:09:00,57.2,44.3,30.33,SSW,192,4.0,8.0,62,0.00,,---,0.01,VWS V13.01,2013-11-05 14:09:00,
2013-11-05 08:10:00,57.3,44.0,30.33,SSW,192,4.0,8.0,61,0.00,,---,0.01,VWS V13.01,2013-11-05 14:10:00,
2013-11-05 08:11:00,57.4,44.5,30.33,SSW,192,2.0,8.0,62,0.00,,---,0.01,VWS V13.01,2013-11-05 14:11:00,
2013-11-05 08:12:00,57.5,44.6,30.33,SSW,192,4.0,8.0,62,0.00,,---,0.01,VWS V13.01,2013-11-05 14:12:00,
2013-11-05 08:13:00,57.6,44.7,30.33,SSW,192,4.0,8.0,62,0.00,,---,0.01,VWS V13.01,2013-11-05 14:13:00,
2013-11-05 08:14:00,57.6,44.7,30.33,SSW,192,5.0,8.0,62,0.00,,---,0.01,VWS V13.01,2013-11-05 14:14:00,
2013-11-05 08:15:00,57.7,44.4,30.33,SSW,192,2.0,8.0,61,0.00,,---,0.01,VWS V13.01,2013-11-05 14:15:00,
2013-11-05 08:16:00,57.7,44.8,30.33,SSW,192,5.0,8.0,62,0.00,,---,0.01,VWS V13.01,2013-11-05 14:16:00,
2013-11-05 08:17:00,57.8,44.5,30.33,SSW,192,3.0,8.0,61,0.00,,---,0.01,VWS V13.01,2013-11-05 14:17:00,
2013-11-05 08:18:00,57.8,44.5,30.33,SSW,192,3.0,8.0,61,0.00,,---,0.01,VWS V13.01,2013-11-05 14:18:00,
2013-11-05 08:19:00,57.8,44.0,30.33,SSW,192,4.0,8.0,60,0.00,,---,0.01,VWS V13.01,2013-11-05 14:19:00,
2013-11-05 08:20:00,57.8,44.5,30.33,South,191,5.0,8.0,61,0.00,,---,0.01,VWS V13.01,2013-11-05 14:20:00,
2013-11-05 08:21:00,57.8,44.5,30.33,SSW,194,5.0,8.0,61,0.00,,---,0.01,VWS V13.01,2013-11-05 14:21:00,
2013-11-05 08:22:00,57.8,44.5,30.33,SSW,193,6.0,8.0,61,0.00,,---,0.01,VWS V13.01,2013-11-05 14:22:00,
2013-11-05 08:23:00,57.8,44.0,30.33,SSW,199,2.0,11.0,60,0.00,,---,0.01,VWS V13.01,2013-11-05 14:23:00,
2013-11-05 08:24:00,57.8,44.0,30.33,SSW,207,4.0,11.0,60,0.00,,---,0.01,VWS V13.01,2013-11-05 14:24:00,
2013-11-05 08:25:00,57.8,44.0,30.33,SSW,206,6.0,11.0,60,0.00,,---,0.01,VWS V13.01,2013-11-05 14:25:00,
2013-11-05 08:26:00,57.8,44.0,30.33,South,178,5.0,11.0,60,0.00,,---,0.01,VWS V13.01,2013-11-05 14:26:00,
2013-11-05 08:27:00,57.8,44.0,30.33,South,178,5.0,11.0,60,0.00,,---,0.01,VWS V13.01,2013-11-05 14:27:00,
2013-11-05 08:28:00,57.9,44.5,30.33,South,178,5.0,11.0,61,0.00,,---,0.01,VWS V13.01,2013-11-05 14:28:00,
2013-11-05 08:29:00,57.9,44.5,30.33,South,183,3.0,11.0,61,0.00,,---,0.01,VWS V13.01,2013-11-05 14:29:00,
2013-11-05 08:30:00,58.0,44.2,30.33,South,188,4.0,11.0,60,0.00,,---,0.01,VWS V13.01,2013-11-05 14:30:00,
2013-11-05 08:31:00,58.0,44.2,30.33,South,189,7.0,7.0,60,0.00,,---,0.01,VWS V13.01,2013-11-05 14:31:00,
2013-11-05 08:32:00,58.0,44.2,30.33,SSW,192,8.0,10.0,60,0.00,,---,0.01,VWS V13.01,2013-11-05 14:32:00,
2013-11-05 08:33:00,58.0,44.2,30.33,SSW,192,4.0,10.0,60,0.00,,---,0.01,VWS V13.01,2013-11-05 14:33:00,
2013-11-05 08:34:00,58.0,44.2,30.33,SSW,195,3.0,10.0,60,0.00,,---,0.01,VWS V13.01,2013-11-05 14:34:00,
2013-11-05 08:35:00,58.1,44.3,30.33,SSW,195,8.0,10.0,60,0.00,,---,0.01,VWS V13.01,2013-11-05 14:35:00,
2013-11-05 08:36:00,58.0,43.8,30.32,SSW,195,7.0,11.0,59,0.00,,---,0.01,VWS V13.01,2013-11-05 14:36:00,
2013-11-05 08:37:00,58.1,43.9,30.32,SSW,196,5.0,11.0,59,0.00,,---,0.01,VWS V13.01,2013-11-05 14:37:00,
2013-11-05 08:38:00,58.0,44.2,30.32,SSW,198,4.0,11.0,60,0.00,,---,0.01,VWS V13.01,2013-11-05 14:38:00,
2013-11-05 08:39:00,58.0,44.2,30.32,SSW,198,3.0,11.0,60,0.00,,---,0.01,VWS V13.01,2013-11-05 14:39:00,
2013-11-05 08:40:00,58.0,44.2,30.33,SSW,206,9.0,11.0,60,0.00,,---,0.01,VWS V13.01,2013-11-05 14:40:00,
2013-11-05 08:41:00,58.1,44.3,30.33,SSW,212,5.0,11.0,60,0.00,,---,0.01,VWS V13.01,2013-11-05 14:41:00,
2013-11-05 08:42:00,58.1,44.3,30.32,SSW,212,3.0,11.0,60,0.00,,---,0.01,VWS V13.01,2013-11-05 14:42:00,
2013-11-05 08:43:00,58.0,44.2,30.32,SSW,211,5.0,11.0,60,0.00,,---,0.01,VWS V13.01,2013-11-05 14:43:00,
2013-11-05 08:44:00,58.1,44.3,30.32,SSW,211,4.0,11.0,60,0.00,,---,0.01,VWS V13.01,2013-11-05 14:44:00,
2013-11-05 08:45:00,58.1,44.7,30.33,SSW,213,5.0,11.0,61,0.00,,---,0.01,VWS V13.01,2013-11-05 14:45:00,
2013-11-05 08:46:00,58.1,44.7,30.33,SSW,213,7.0,11.0,61,0.00,,---,0.01,VWS V13.01,2013-11-05 14:46:00,
2013-11-05 08:47:00,58.1,44.3,30.33,SSW,213,9.0,11.0,60,0.00,,---,0.01,VWS V13.01,2013-11-05 14:47:00,
2013-11-05 08:48:00,58.2,44.4,30.33,SSW,213,4.0,11.0,60,0.00,,---,0.01,VWS V13.01,2013-11-05 14:48:00,
2013-11-05 08:49:00,58.2,44.4,30.33,SSW,213,4.0,11.0,60,0.00,,---,0.01,VWS V13.01,2013-11-05 14:49:00,
2013-11-05 08:50:00,58.3,44.5,30.33,SSW,211,6.0,11.0,60,0.00,,---,0.01,VWS V13.01,2013-11-05 14:50:00,
2013-11-05 08:51:00,58.4,44.6,30.33,SSW,211,5.0,11.0,60,0.00,,---,0.01,VWS V13.01,2013-11-05 14:51:00,
2013-11-05 08:52:00,58.4,45.0,30.33,SSW,210,7.0,11.0,61,0.00,,---,0.01,VWS V13.01,2013-11-05 14:52:00,
2013-11-05 08:53:00,58.5,44.2,30.33,SSW,206,7.0,12.0,59,0.00,,---,0.01,VWS V13.01,2013-11-05 14:53:00,
2013-11-05 08:54:00,58.6,44.3,30.33,SSW,207,4.0,12.0,59,0.00,,---,0.01,VWS V13.01,2013-11-05 14:54:00,
2013-11-05 08:55:00,58.7,44.9,30.33,SSW,207,4.0,12.0,60,0.00,,---,0.01,VWS V13.01,2013-11-05 14:55:00,
2013-11-05 08:56:00,58.9,45.5,30.33,SSW,207,2.0,12.0,61,0.00,,---,0.01,VWS V13.01,2013-11-05 14:56:00,
2013-11-05 08:57:00,59.0,45.6,30.33,SW,230,10.0,12.0,61,0.00,,---,0.01,VWS V13.01,2013-11-05 14:57:00,
2013-11-05 08:58:00,59.0,45.2,30.33,SW,230,6.0,12.0,60,0.00,,---,0.01,VWS V13.01,2013-11-05 14:58:00,
2013-11-05 08:59:00,59.0,45.6,30.33,SW,227,9.0,12.0,61,0.00,,---,0.01,VWS V13.01,2013-11-05 14:59:00,
2013-11-05 09:00:00,59.0,44.7,30.33,SW,229,7.0,12.0,59,0.00,,---,0.01,VWS V13.01,2013-11-05 15:00:00,
2013-11-05 09:01:00,59.0,44.7,30.33,SW,229,4.0,10.0,59,0.00,,---,0.01,VWS V13.01,2013-11-05 15:01:00,
2013-11-05 09:02:00,59.1,44.8,30.32,SW,227,5.0,10.0,59,0.00,,---,0.01,VWS V13.01,2013-11-05 15:02:00,
2013-11-05 09:03:00,59.2,44.9,30.33,SW,224,6.0,12.0,59,0.00,,---,0.01,VWS V13.01,2013-11-05 15:03:00,
2013-11-05 09:04:00,59.3,45.0,30.32,SW,217,6.0,12.0,59,0.00,,---,0.01,VWS V13.01,2013-11-05 15:04:00,
2013-11-05 09:05:00,59.4,45.1,30.32,SSW,213,5.0,12.0,59,0.00,,---,0.01,VWS V13.01,2013-11-05 15:05:00,
2013-11-05 09:06:00,59.5,45.2,30.33,SSW,213,9.0,12.0,59,0.00,,---,0.01,VWS V13.01,2013-11-05 15:06:00,
2013-11-05 09:07:00,59.6,44.8,30.32,SW,215,7.0,12.0,58,0.00,,---,0.01,VWS V13.01,2013-11-05 15:07:00,
2013-11-05 09:08:00,59.6,45.3,30.32,SW,215,6.0,12.0,59,0.00,,---,0.01,VWS V13.01,2013-11-05 15:08:00,
2013-11-05 09:09:00,59.7,45.4,30.33,SW,215,10.0,12.0,59,0.00,,---,0.01,VWS V13.01,2013-11-05 15:09:00,
2013-11-05 09:10:00,59.8,45.5,30.32,SW,219,6.0,12.0,59,0.00,,---,0.01,VWS V13.01,2013-11-05 15:10:00,
2013-11-05 09:11:00,60.0,45.7,30.33,SW,218,7.0,12.0,59,0.00,,---,0.01,VWS V13.01,2013-11-05 15:11:00,
2013-11-05 09:12:00,60.1,45.7,30.32,SW,217,7.0,12.0,59,0.00,,---,0.01,VWS V13.01,2013-11-05 15:12:00,
2013-11-05 09:13:00,60.2,45.4,30.33,SW,218,6.0,12.0,58,0.00,,---,0.01,VWS V13.01,2013-11-05 15:13:00,
2013-11-05 09:14:00,60.3,45.5,30.33,SW,224,8.0,12.0,58,0.00,,---,0.01,VWS V13.01,2013-11-05 15:14:00,
2013-11-05 09:15:00,60.4,45.6,30.33,SSW,211,5.0,12.0,58,0.00,,---,0.01,VWS V13.01,2013-11-05 15:15:00,
2013-11-05 09:16:00,60.5,45.2,30.33,SSW,200,8.0,14.0,57,0.00,,---,0.01,VWS V13.01,2013-11-05 15:16:00,
2013-11-05 09:17:00,60.5,45.2,30.33,SSW,202,10.0,14.0,57,0.00,,---,0.01,VWS V13.01,2013-11-05 15:17:00,
2013-11-05 09:18:00,60.5,45.2,30.33,SSW,207,5.0,14.0,57,0.00,,---,0.01,VWS V13.01,2013-11-05 15:18:00,
2013-11-05 09:19:00,60.5,45.2,30.33,SSW,207,5.0,14.0,57,0.00,,---,0.01,VWS V13.01,2013-11-05 15:19:00,
2013-11-05 09:20:00,60.5,45.2,30.33,SSW,211,10.0,14.0,57,0.00,,---,0.01,VWS V13.01,2013-11-05 15:20:00,
2013-11-05 09:21:00,60.4,45.1,30.33,SW,217,13.0,15.0,57,0.00,,---,0.01,VWS V13.01,2013-11-05 15:21:00,
2013-11-05 09:22:00,60.3,45.0,30.33,SW,215,9.0,15.0,57,0.00,,---,0.01,VWS V13.01,2013-11-05 15:22:00,
2013-11-05 09:23:00,60.3,45.0,30.33,SSW,196,9.0,15.0,57,0.00,,---,0.01,VWS V13.01,2013-11-05 15:23:00,
2013-11-05 09:24:00,60.2,44.9,30.33,SSW,211,10.0,15.0,57,0.00,,---,0.01,VWS V13.01,2013-11-05 15:24:00,
2013-11-05 09:25:00,60.2,44.9,30.33,SSW,209,10.0,15.0,57,0.00,,---,0.01,VWS V13.01,2013-11-05 15:25:00,
2013-11-05 09:26:00,60.1,44.8,30.33,SSW,209,8.0,15.0,57,0.00,,---,0.01,VWS V13.01,2013-11-05 15:26:00,
2013-11-05 09:27:00,60.1,44.8,30.33,SSW,210,8.0,15.0,57,0.00,,---,0.01,VWS V13.01,2013-11-05 15:27:00,
2013-11-05 09:28:00,60.1,44.8,30.33,SSW,210,6.0,15.0,57,0.00,,---,0.01,VWS V13.01,2013-11-05 15:28:00,
2013-11-05 09:29:00,60.1,45.3,30.33,SSW,207,6.0,15.0,58,0.00,,---,0.01,VWS V13.01,2013-11-05 15:29:00,
2013-11-05 09:30:00,60.2,44.9,30.33,South,189,9.0,15.0,57,0.00,,---,0.01,VWS V13.01,2013-11-05 15:30:00,
2013-11-05 09:31:00,60.2,44.9,30.33,South,183,5.0,10.0,57,0.00,,---,0.01,VWS V13.01,2013-11-05 15:31:00,
2013-11-05 09:32:00,60.3,45.5,30.33,South,183,5.0,10.0,58,0.00,,---,0.01,VWS V13.01,2013-11-05 15:32:00,
2013-11-05 09:33:00,60.3,45.0,30.33,South,183,7.0,10.0,57,0.00,,---,0.01,VWS V13.01,2013-11-05 15:33:00,
2013-11-05 09:34:00,60.3,45.0,30.33,South,183,3.0,10.0,57,0.00,,---,0.01,VWS V13.01,2013-11-05 15:34:00,
2013-11-05 09:35:00,60.3,45.0,30.32,South,186,5.0,10.0,57,0.00,,---,0.01,VWS V13.01,2013-11-05 15:35:00,
2013-11-05 09:36:00,60.3,45.0,30.33,SSW,192,7.0,12.0,57,0.00,,---,0.01,VWS V13.01,2013-11-05 15:36:00,
2013-11-05 09:37:00,60.2,44.9,30.32,SSW,194,5.0,12.0,57,0.00,,---,0.01,VWS V13.01,2013-11-05 15:37:00,
2013-11-05 09:38:00,60.2,44.9,30.33,SSW,195,6.0,12.0,57,0.00,,---,0.01,VWS V13.01,2013-11-05 15:38:00,
2013-11-05 09:39:00,60.1,45.3,30.33,SSW,195,4.0,12.0,58,0.00,,---,0.01,VWS V13.01,2013-11-05 15:39:00,
2013-11-05 09:40:00,60.1,45.7,30.33,SSW,196,7.0,12.0,59,0.00,,---,0.01,VWS V13.01,2013-11-05 15:40:00,
2013-11-05 09:41:00,60.1,45.7,30.32,SSW,196,5.0,12.0,59,0.00,,---,0.01,VWS V13.01,2013-11-05 15:41:00,
2013-11-05 09:42:00,60.1,45.3,30.33,South,188,2.0,12.0,58,0.00,,---,0.01,VWS V13.01,2013-11-05 15:42:00,
2013-11-05 09:43:00,60.2,45.4,30.32,South,188,7.0,12.0,58,0.00,,---,0.01,VWS V13.01,2013-11-05 15:43:00,
2013-11-05 09:44:00,60.2,45.4,30.32,South,190,5.0,12.0,58,0.00,,---,0.01,VWS V13.01,2013-11-05 15:44:00,
2013-11-05 09:45:00,60.2,44.9,30.32,South,188,6.0,12.0,57,0.00,,---,0.01,VWS V13.01,2013-11-05 15:45:00,
2013-11-05 09:46:00,60.3,45.5,30.32,South,190,6.0,12.0,58,0.00,,---,0.01,VWS V13.01,2013-11-05 15:46:00,
2013-11-05 09:47:00,60.3,45.5,30.32,South,190,3.0,12.0,58,0.00,,---,0.01,VWS V13.01,2013-11-05 15:47:00,
2013-11-05 09:48:00,60.4,45.6,30.32,South,189,4.0,12.0,58,0.00,,---,0.01,VWS V13.01,2013-11-05 15:48:00,
2013-11-05 09:49:00,60.5,45.7,30.32,South,190,5.0,12.0,58,0.00,,---,0.01,VWS V13.01,2013-11-05 15:49:00,
2013-11-05 09:50:00,60.5,45.7,30.32,South,190,4.0,12.0,58,0.00,,---,0.01,VWS V13.01,2013-11-05 15:50:00,
2013-11-05 09:51:00,60.5,45.7,30.32,South,189,6.0,12.0,58,0.00,,---,0.01,VWS V13.01,2013-11-05 15:51:00,
2013-11-05 09:52:00,60.6,45.8,30.32,South,188,6.0,12.0,58,0.00,,---,0.01,VWS V13.01,2013-11-05 15:52:00,
2013-11-05 09:53:00,60.6,45.3,30.32,SSW,197,4.0,12.0,57,0.00,,---,0.01,VWS V13.01,2013-11-05 15:53:00,
2013-11-05 09:54:00,60.5,45.2,30.32,SSW,197,4.0,12.0,57,0.00,,---,0.01,VWS V13.01,2013-11-05 15:54:00,
2013-11-05 09:55:00,60.5,45.2,30.32,SSW,197,7.0,12.0,57,0.00,,---,0.01,VWS V13.01,2013-11-05 15:55:00,
2013-11-05 09:56:00,60.5,45.2,30.32,SSW,197,4.0,12.0,57,0.00,,---,0.01,VWS V13.01,2013-11-05 15:56:00,
2013-11-05 09:57:00,60.4,45.1,30.32,SSW,197,6.0,12.0,57,0.00,,---,0.01,VWS V13.01,2013-11-05 15:57:00,
2013-11-05 09:58:00,60.4,45.1,30.32,SSW,198,6.0,12.0,57,0.00,,---,0.01,VWS V13.01,2013-11-05 15:58:00,
2013-11-05 09:59:00,60.3,45.0,30.32,SSW,198,4.0,12.0,57,0.00,,---,0.01,VWS V13.01,2013-11-05 15:59:00,
2013-11-05 10:00:00,60.3,45.0,30.31,SSW,198,5.0,12.0,57,0.00,,---,0.01,VWS V13.01,2013-11-05 16:00:00,
2013-11-05 10:01:00,60.3,45.5,30.31,SSW,198,3.0,5.0,58,0.00,,---,0.01,VWS V13.01,2013-11-05 16:01:00,
2013-11-05 10:02:00,60.3,45.5,30.31,SSW,209,5.0,9.0,58,0.00,,---,0.01,VWS V13.01,2013-11-05 16:02:00,
2013-11-05 10:03:00,60.2,45.4,30.31,SSW,209,6.0,9.0,58,0.00,,---,0.01,VWS V13.01,2013-11-05 16:03:00,
2013-11-05 10:04:00,60.2,44.9,30.31,SSW,207,5.0,9.0,57,0.00,,---,0.01,VWS V13.01,2013-11-05 16:04:00,
2013-11-05 10:05:00,60.1,44.8,30.31,SSW,206,5.0,9.0,57,0.00,,---,0.01,VWS V13.01,2013-11-05 16:05:00,
2013-11-05 10:06:00,60.1,45.3,30.31,SSW,206,3.0,9.0,58,0.00,,---,0.01,VWS V13.01,2013-11-05 16:06:00,
2013-11-05 10:07:00,60.1,45.3,30.31,SSW,207,2.0,9.0,58,0.00,,---,0.01,VWS V13.01,2013-11-05 16:07:00,
2013-11-05 10:08:00,60.0,45.2,30.31,SSW,205,6.0,9.0,58,0.00,,---,0.01,VWS V13.01,2013-11-05 16:08:00,
2013-11-05 10:09:00,60.1,45.3,30.31,SSW,205,4.0,9.0,58,0.00,,---,0.01,VWS V13.01,2013-11-05 16:09:00,
2013-11-05 10:10:00,60.0,44.7,30.31,South,190,8.0,9.0,57,0.00,,---,0.01,VWS V13.01,2013-11-05 16:10:00,
2013-11-05 10:11:00,60.0,45.2,30.31,South,188,7.0,9.0,58,0.00,,---,0.01,VWS V13.01,2013-11-05 16:11:00,
2013-11-05 10:12:00,60.0,45.2,30.31,South,188,4.0,9.0,58,0.00,,---,0.01,VWS V13.01,2013-11-05 16:12:00,
2013-11-05 10:13:00,60.0,45.2,30.30,South,188,9.0,9.0,58,0.00,,---,0.01,VWS V13.01,2013-11-05 16:13:00,
2013-11-05 10:14:00,60.0,45.2,30.31,South,188,6.0,9.0,58,0.00,,---,0.01,VWS V13.01,2013-11-05 16:14:00,
2013-11-05 10:15:00,60.1,45.3,30.31,SW,214,5.0,9.0,58,0.00,,---,0.01,VWS V13.01,2013-11-05 16:15:00,
2013-11-05 10:16:00,60.1,45.7,30.30,SW,215,3.0,9.0,59,0.00,,---,0.01,VWS V13.01,2013-11-05 16:16:00,
2013-11-05 10:17:00,60.2,45.4,30.30,SW,214,3.0,9.0,58,0.00,,---,0.01,VWS V13.01,2013-11-05 16:17:00,
2013-11-05 10:18:00,60.2,45.4,30.30,SSW,213,8.0,9.0,58,0.00,,---,0.01,VWS V13.01,2013-11-05 16:18:00,
2013-11-05 10:19:00,60.2,45.4,30.31,SSW,210,6.0,9.0,58,0.00,,---,0.01,VWS V13.01,2013-11-05 16:19:00,
2013-11-05 10:20:00,60.2,44.9,30.30,SSW,205,4.0,9.0,57,0.00,,---,0.01,VWS V13.01,2013-11-05 16:20:00,
2013-11-05 10:21:00,60.2,45.8,30.30,SSW,205,3.0,9.0,59,0.00,,---,0.01,VWS V13.01,2013-11-05 16:21:00,
2013-11-05 10:22:00,60.2,45.4,30.30,SSW,205,2.0,9.0,58,0.00,,---,0.01,VWS V13.01,2013-11-05 16:22:00,
2013-11-05 10:23:00,60.3,45.5,30.30,SSW,205,6.0,9.0,58,0.00,,---,0.01,VWS V13.01,2013-11-05 16:23:00,
2013-11-05 10:24:00,60.3,45.5,30.30,South,183,6.0,10.0,58,0.00,,---,0.01,VWS V13.01,2013-11-05 16:24:00,
2013-11-05 10:25:00,60.3,45.5,30.30,South,183,3.0,10.0,58,0.00,,---,0.01,VWS V13.01,2013-11-05 16:25:00,
2013-11-05 10:26:00,60.3,45.5,30.30,South,183,4.0,10.0,58,0.00,,---,0.01,VWS V13.01,2013-11-05 16:26:00,
2013-11-05 10:27:00,60.3,45.9,30.30,South,183,3.0,10.0,59,0.00,,---,0.01,VWS V13.01,2013-11-05 16:27:00,
2013-11-05 10:28:00,60.4,45.6,30.30,South,183,8.0,10.0,58,0.00,,---,0.01,VWS V13.01,2013-11-05 16:28:00,
2013-11-05 10:29:00,60.4,45.1,30.29,South,182,5.0,10.0,57,0.00,,---,0.01,VWS V13.01,2013-11-05 16:29:00,
2013-11-05 10:30:00,60.4,45.1,30.30,South,183,4.0,10.0,57,0.00,,---,0.01,VWS V13.01,2013-11-05 16:30:00,
2013-11-05 10:31:00,60.4,45.1,30.29,South,183,4.0,4.0,57,0.00,,---,0.01,VWS V13.01,2013-11-05 16:31:00,
2013-11-05 10:32:00,60.4,45.6,30.29,South,184,5.0,7.0,58,0.00,,---,0.01,VWS V13.01,2013-11-05 16:32:00,
2013-11-05 10:33:00,60.3,45.5,30.29,South,182,3.0,7.0,58,0.00,,---,0.01,VWS V13.01,2013-11-05 16:33:00,
2013-11-05 10:34:00,60.4,45.6,30.29,South,182,4.0,7.0,58,0.00,,---,0.01,VWS V13.01,2013-11-05 16:34:00,
2013-11-05 10:35:00,60.4,45.6,30.29,South,182,5.0,7.0,58,0.00,,---,0.01,VWS V13.01,2013-11-05 16:35:00,
2013-11-05 10:36:00,60.4,45.6,30.29,South,182,6.0,7.0,58,0.00,,---,0.01,VWS V13.01,2013-11-05 16:36:00,
2013-11-05 10:37:00,60.5,45.7,30.29,South,182,4.0,7.0,58,0.00,,---,0.01,VWS V13.01,2013-11-05 16:37:00,
2013-11-05 10:38:00,60.5,45.7,30.29,South,182,5.0,7.0,58,0.00,,---,0.01,VWS V13.01,2013-11-05 16:38:00,
2013-11-05 10:39:00,60.6,45.8,30.29,South,182,6.0,7.0,58,0.00,,---,0.01,VWS V13.01,2013-11-05 16:39:00,
2013-11-05 10:40:00,60.7,45.8,30.29,South,190,6.0,12.0,58,0.00,,---,0.01,VWS V13.01,2013-11-05 16:40:00,
2013-11-05 10:41:00,60.7,45.8,30.29,South,191,6.0,12.0,58,0.00,,---,0.01,VWS V13.01,2013-11-05 16:41:00,
2013-11-05 10:42:00,60.7,45.8,30.29,South,191,4.0,12.0,58,0.00,,---,0.01,VWS V13.01,2013-11-05 16:42:00,
2013-11-05 10:43:00,60.7,45.8,30.29,SSW,198,7.0,12.0,58,0.00,,---,0.01,VWS V13.01,2013-11-05 16:43:00,
2013-11-05 10:44:00,60.7,45.8,30.29,SSW,198,4.0,12.0,58,0.00,,---,0.01,VWS V13.01,2013-11-05 16:44:00,
2013-11-05 10:45:00,60.8,46.0,30.28,SSW,198,3.0,12.0,58,0.00,,---,0.01,VWS V13.01,2013-11-05 16:45:00,
2013-11-05 10:46:00,60.9,46.0,30.28,SSW,198,6.0,12.0,58,0.00,,---,0.01,VWS V13.01,2013-11-05 16:46:00,
2013-11-05 10:47:00,61.0,46.1,30.28,SSW,198,8.0,12.0,58,0.00,,---,0.01,VWS V13.01,2013-11-05 16:47:00,
2013-11-05 10:48:00,61.1,46.2,30.28,SSW,198,5.0,12.0,58,0.00,,---,0.01,VWS V13.01,2013-11-05 16:48:00,
2013-11-05 10:49:00,61.1,46.2,30.28,SSW,198,4.0,12.0,58,0.00,,---,0.01,VWS V13.01,2013-11-05 16:49:00,
2013-11-05 10:50:00,61.3,46.4,30.28,SSW,198,3.0,12.0,58,0.00,,---,0.01,VWS V13.01,2013-11-05 16:50:00,
2013-11-05 10:51:00,61.5,47.1,30.28,SSW,197,5.0,12.0,59,0.00,,---,0.01,VWS V13.01,2013-11-05 16:51:00,
2013-11-05 10:52:00,61.7,46.8,30.28,SSW,198,6.0,12.0,58,0.00,,---,0.01,VWS V13.01,2013-11-05 16:52:00,
2013-11-05 10:53:00,61.9,47.0,30.28,SSW,198,5.0,12.0,58,0.00,,---,0.01,VWS V13.01,2013-11-05 16:53:00,
2013-11-05 10:54:00,62.1,47.2,30.28,SSW,198,5.0,12.0,58,0.00,,---,0.01,VWS V13.01,2013-11-05 16:54:00,
2013-11-05 10:55:00,62.2,46.3,30.28,SSW,198,6.0,12.0,56,0.00,,---,0.01,VWS V13.01,2013-11-05 16:55:00,
2013-11-05 10:56:00,62.4,47.0,30.28,SSW,198,9.0,12.0,57,0.00,,---,0.01,VWS V13.01,2013-11-05 16:56:00,
2013-11-05 10:57:00,62.5,46.6,30.28,SSW,198,5.0,12.0,56,0.00,,---,0.01,VWS V13.01,2013-11-05 16:57:00,
2013-11-05 10:58:00,62.6,46.7,30.28,SSW,198,3.0,12.0,56,0.00,,---,0.01,VWS V13.01,2013-11-05 16:58:00,
2013-11-05 10:59:00,62.7,47.3,30.28,SSW,198,4.0,12.0,57,0.00,,---,0.01,VWS V13.01,2013-11-05 16:59:00,
2013-11-05 11:00:00,62.7,47.3,30.27,SSW,198,2.0,12.0,57,0.00,,---,0.01,VWS V13.01,2013-11-05 17:00:00,
2013-11-05 11:01:00,62.8,47.4,30.27,SSW,198,6.0,7.0,57,0.00,,---,0.01,VWS V13.01,2013-11-05 17:01:00,
2013-11-05 11:02:00,63.0,47.1,30.27,SSW,195,6.0,7.0,56,0.00,,---,0.01,VWS V13.01,2013-11-05 17:02:00,
2013-11-05 11:03:00,63.1,46.7,30.27,South,189,5.0,9.0,55,0.00,,---,0.01,VWS V13.01,2013-11-05 17:03:00,
2013-11-05 11:04:00,63.4,47.0,30.28,South,187,2.0,9.0,55,0.00,,---,0.01,VWS V13.01,2013-11-05 17:04:00,
2013-11-05 11:05:00,63.5,47.5,30.27,South,186,7.0,9.0,56,0.00,,---,0.01,VWS V13.01,2013-11-05 17:05:00,
2013-11-05 11:06:00,63.6,46.7,30.27,South,184,4.0,9.0,54,0.00,,---,0.01,VWS V13.01,2013-11-05 17:06:00,
2013-11-05 11:07:00,63.6,46.7,30.27,South,184,6.0,9.0,54,0.00,,---,0.01,VWS V13.01,2013-11-05 17:07:00,
2013-11-05 11:08:00,63.5,47.1,30.27,South,183,5.0,9.0,55,0.00,,---,0.01,VWS V13.01,2013-11-05 17:08:00,
2013-11-05 11:09:00,63.5,47.1,30.27,South,186,4.0,9.0,55,0.00,,---,0.01,VWS V13.01,2013-11-05 17:09:00,
2013-11-05 11:10:00,63.5,47.1,30.27,South,186,3.0,9.0,55,0.00,,---,0.01,VWS V13.01,2013-11-05 17:10:00,
2013-11-05 11:11:00,63.6,47.2,30.27,South,186,6.0,9.0,55,0.00,,---,0.01,VWS V13.01,2013-11-05 17:11:00,
2013-11-05 11:12:00,63.7,47.2,30.27,South,186,2.0,9.0,55,0.00,,---,0.01,VWS V13.01,2013-11-05 17:12:00,
2013-11-05 11:13:00,63.7,46.8,30.27,South,182,4.0,9.0,54,0.00,,---,0.01,VWS V13.01,2013-11-05 17:13:00,
2013-11-05 11:14:00,63.7,46.8,30.27,South,182,1.0,9.0,54,0.00,,---,0.01,VWS V13.01,2013-11-05 17:14:00,
2013-11-05 11:15:00,63.6,46.7,30.27,South,182,6.0,9.0,54,0.00,,---,0.01,VWS V13.01,2013-11-05 17:15:00,
2013-11-05 11:16:00,63.5,46.6,30.27,South,182,5.0,9.0,54,0.00,,---,0.01,VWS V13.01,2013-11-05 17:16:00,
2013-11-05 11:17:00,63.5,46.6,30.27,South,183,5.0,9.0,54,0.00,,---,0.01,VWS V13.01,2013-11-05 17:17:00,
2013-11-05 11:18:00,63.5,47.1,30.27,South,183,5.0,9.0,55,0.00,,---,0.01,VWS V13.01,2013-11-05 17:18:00,
2013-11-05 11:19:00,63.6,47.2,30.27,South,183,2.0,9.0,55,0.00,,---,0.01,VWS V13.01,2013-11-05 17:19:00,
2013-11-05 11:20:00,63.6,47.2,30.27,South,183,3.0,9.0,55,0.00,,---,0.01,VWS V13.01,2013-11-05 17:20:00,
2013-11-05 11:21:00,63.9,47.4,30.27,South,183,0.0,9.0,55,0.00,,---,0.01,VWS V13.01,2013-11-05 17:21:00,
2013-11-05 11:22:00,64.0,48.0,30.27,South,183,3.0,9.0,56,0.00,,---,0.01,VWS V13.01,2013-11-05 17:22:00,
2013-11-05 11:23:00,64.2,47.2,30.26,South,183,2.0,9.0,54,0.00,,---,0.01,VWS V13.01,2013-11-05 17:23:00,
2013-11-05 11:24:00,64.3,47.3,30.26,South,183,4.0,9.0,54,0.00,,---,0.01,VWS V13.01,2013-11-05 17:24:00,
2013-11-05 11:25:00,64.5,48.0,30.27,South,183,2.0,9.0,55,0.00,,---,0.01,VWS V13.01,2013-11-05 17:25:00,
2013-11-05 11:26:00,64.7,48.2,30.26,South,183,3.0,9.0,55,0.00,,---,0.01,VWS V13.01,2013-11-05 17:26:00,
2013-11-05 11:27:00,64.9,47.9,30.26,SSW,196,4.0,10.0,54,0.00,,---,0.01,VWS V13.01,2013-11-05 17:27:00,
2013-11-05 11:28:00,65.0,48.0,30.26,SSW,196,3.0,10.0,54,0.00,,---,0.01,VWS V13.01,2013-11-05 17:28:00,
2013-11-05 11:29:00,65.2,48.2,30.26,SSW,196,3.0,10.0,54,0.00,,---,0.01,VWS V13.01,2013-11-05 17:29:00,
2013-11-05 11:30:00,65.3,48.2,30.26,SSW,196,2.0,10.0,54,0.00,,---,0.01,VWS V13.01,2013-11-05 17:30:00,
2013-11-05 11:31:00,65.4,48.3,30.26,SSW,196,0.0,3.0,54,0.00,,---,0.01,VWS V13.01,2013-11-05 17:31:00,
2013-11-05 11:32:00,65.5,47.9,30.26,SSW,196,3.0,5.0,53,0.00,,---,0.01,VWS V13.01,2013-11-05 17:32:00,
2013-11-05 11:33:00,65.7,49.1,30.26,SSW,196,7.0,7.0,55,0.00,,---,0.01,VWS V13.01,2013-11-05 17:33:00,
2013-11-05 11:34:00,65.9,48.3,30.26,SSW,196,5.0,7.0,53,0.00,,---,0.01,VWS V13.01,2013-11-05 17:34:00,
2013-11-05 11:35:00,66.0,48.4,30.26,SSW,207,5.0,10.0,53,0.00,,---,0.01,VWS V13.01,2013-11-05 17:35:00,
2013-11-05 11:36:00,66.1,48.0,30.26,SSW,207,6.0,10.0,52,0.00,,---,0.01,VWS V13.01,2013-11-05 17:36:00,
2013-11-05 11:37:00,66.0,47.9,30.26,SSW,208,6.0,10.0,52,0.00,,---,0.01,VWS V13.01,2013-11-05 17:37:00,
2013-11-05 11:38:00,66.0,47.9,30.26,SSW,208,6.0,10.0,52,0.00,,---,0.01,VWS V13.01,2013-11-05 17:38:00,
2013-11-05 11:39:00,65.9,47.8,30.26,SSW,208,4.0,10.0,52,0.00,,---,0.01,VWS V13.01,2013-11-05 17:39:00,
2013-11-05 11:40:00,65.9,47.8,30.26,SSW,202,7.0,10.0,52,0.00,,---,0.01,VWS V13.01,2013-11-05 17:40:00,
2013-11-05 11:41:00,65.8,47.7,30.26,SSW,202,4.0,10.0,52,0.00,,---,0.01,VWS V13.01,2013-11-05 17:41:00,
2013-11-05 11:42:00,65.8,47.7,30.26,SSW,200,11.0,11.0,52,0.00,,---,0.01,VWS V13.01,2013-11-05 17:42:00,
2013-11-05 11:43:00,65.8,48.2,30.26,SSW,200,5.0,11.0,53,0.00,,---,0.01,VWS V13.01,2013-11-05 17:43:00,
2013-11-05 11:44:00,65.7,48.1,30.26,SSW,192,9.0,11.0,53,0.00,,---,0.01,VWS V13.01,2013-11-05 17:44:00,
2013-11-05 11:45:00,65.6,47.5,30.26,SSW,192,4.0,11.0,52,0.00,,---,0.01,VWS V13.01,2013-11-05 17:45:00,
2013-11-05 11:46:00,65.5,47.9,30.26,South,190,7.0,11.0,53,0.00,,---,0.01,VWS V13.01,2013-11-05 17:46:00,
2013-11-05 11:47:00,65.3,47.8,30.26,South,190,1.0,11.0,53,0.00,,---,0.01,VWS V13.01,2013-11-05 17:47:00,
2013-11-05 11:48:00,65.3,48.2,30.26,South,190,1.0,11.0,54,0.00,,---,0.01,VWS V13.01,2013-11-05 17:48:00,
2013-11-05 11:49:00,65.3,48.2,30.26,South,190,6.0,11.0,54,0.00,,---,0.01,VWS V13.01,2013-11-05 17:49:00,
2013-11-05 11:50:00,65.3,48.2,30.26,South,190,3.0,11.0,54,0.00,,---,0.01,VWS V13.01,2013-11-05 17:50:00,
2013-11-05 11:51:00,65.2,47.7,30.26,South,188,10.0,11.0,53,0.00,,---,0.01,VWS V13.01,2013-11-05 17:51:00,
2013-11-05 11:52:00,65.1,47.6,30.26,South,187,6.0,11.0,53,0.00,,---,0.01,VWS V13.01,2013-11-05 17:52:00,
2013-11-05 11:53:00,65.0,47.5,30.26,South,186,6.0,11.0,53,0.00,,---,0.01,VWS V13.01,2013-11-05 17:53:00,
2013-11-05 11:54:00,64.9,47.4,30.26,SSE,157,7.0,13.0,53,0.00,,---,0.01,VWS V13.01,2013-11-05 17:54:00,
2013-11-05 11:55:00,64.8,47.3,30.26,SSE,159,4.0,13.0,53,0.00,,---,0.01,VWS V13.01,2013-11-05 17:55:00,
2013-11-05 11:56:00,64.7,47.2,30.26,SSE,159,6.0,13.0,53,0.00,,---,0.01,VWS V13.01,2013-11-05 17:56:00,
2013-11-05 11:57:00,64.7,47.7,30.26,South,172,7.0,13.0,54,0.00,,---,0.01,VWS V13.01,2013-11-05 17:57:00,
2013-11-05 11:58:00,64.6,47.6,30.26,South,172,5.0,13.0,54,0.00,,---,0.01,VWS V13.01,2013-11-05 17:58:00,
2013-11-05 11:59:00,64.6,47.6,30.26,South,173,5.0,13.0,54,0.00,,---,0.01,VWS V13.01,2013-11-05 17:59:00,
2013-11-05 12:00:00,64.5,47.5,30.25,South,183,6.0,13.0,54,0.00,,---,0.01,VWS V13.01,2013-11-05 18:00:00,
2013-11-05 12:01:00,64.5,47.5,30.25,South,183,5.0,9.0,54,0.00,,---,0.01,VWS V13.01,2013-11-05 18:01:00,
2013-11-05 12:02:00,64.5,47.5,30.25,South,183,4.0,9.0,54,0.00,,---,0.01,VWS V13.01,2013-11-05 18:02:00,
2013-11-05 12:03:00,64.5,48.0,30.25,South,183,6.0,9.0,55,0.00,,---,0.01,VWS V13.01,2013-11-05 18:03:00,
2013-11-05 12:04:00,64.5,48.0,30.25,South,183,3.0,9.0,55,0.00,,---,0.01,VWS V13.01,2013-11-05 18:04:00,
2013-11-05 12:05:00,64.6,48.1,30.25,South,183,2.0,9.0,55,0.00,,---,0.01,VWS V13.01,2013-11-05 18:05:00,
2013-11-05 12:06:00,64.6,48.1,30.25,South,187,7.0,9.0,55,0.00,,---,0.01,VWS V13.01,2013-11-05 18:06:00,
2013-11-05 12:07:00,64.6,48.1,30.25,South,189,4.0,9.0,55,0.00,,---,0.01,VWS V13.01,2013-11-05 18:07:00,
2013-11-05 12:08:00,64.7,48.2,30.25,South,189,4.0,9.0,55,0.00,,---,0.01,VWS V13.01,2013-11-05 18:08:00,
2013-11-05 12:09:00,64.8,48.8,30.25,South,188,4.0,9.0,56,0.00,,---,0.01,VWS V13.01,2013-11-05 18:09:00,
2013-11-05 12:10:00,64.8,48.8,30.25,South,190,6.0,9.0,56,0.00,,---,0.01,VWS V13.01,2013-11-05 18:10:00,
2013-11-05 12:11:00,64.9,48.4,30.25,South,190,4.0,9.0,55,0.00,,---,0.01,VWS V13.01,2013-11-05 18:11:00,
2013-11-05 12:12:00,64.9,48.4,30.25,SSW,192,6.0,9.0,55,0.00,,---,0.01,VWS V13.01,2013-11-05 18:12:00,
2013-11-05 12:13:00,65.0,48.5,30.25,SSW,192,5.0,9.0,55,0.00,,---,0.01,VWS V13.01,2013-11-05 18:13:00,
2013-11-05 12:14:00,65.0,48.0,30.25,SSW,192,6.0,9.0,54,0.00,,---,0.01,VWS V13.01,2013-11-05 18:14:00,
2013-11-05 12:15:00,65.0,48.5,30.25,SSW,192,7.0,9.0,55,0.00,,---,0.01,VWS V13.01,2013-11-05 18:15:00,
2013-11-05 12:16:00,65.0,48.0,30.24,SSW,193,5.0,9.0,54,0.00,,---,0.01,VWS V13.01,2013-11-05 18:16:00,
2013-11-05 12:17:00,65.0,48.0,30.24,SSW,192,7.0,9.0,54,0.00,,---,0.01,VWS V13.01,2013-11-05 18:17:00,
2013-11-05 12:18:00,65.1,49.0,30.24,South,191,5.0,9.0,56,0.00,,---,0.01,VWS V13.01,2013-11-05 18:18:00,
2013-11-05 12:19:00,65.1,48.1,30.24,SSW,192,4.0,9.0,54,0.00,,---,0.01,VWS V13.01,2013-11-05 18:19:00,
2013-11-05 12:20:00,65.1,48.1,30.24,SSW,192,4.0,9.0,54,0.00,,---,0.01,VWS V13.01,2013-11-05 18:20:00,
2013-11-05 12:21:00,65.2,48.2,30.24,SSW,192,5.0,9.0,54,0.00,,---,0.01,VWS V13.01,2013-11-05 18:21:00,
2013-11-05 12:22:00,65.2,48.6,30.24,South,191,5.0,9.0,55,0.00,,---,0.01,VWS V13.01,2013-11-05 18:22:00,
2013-11-05 12:23:00,65.3,48.2,30.24,South,191,4.0,9.0,54,0.00,,---,0.01,VWS V13.01,2013-11-05 18:23:00,
2013-11-05 12:24:00,65.3,48.2,30.24,South,191,4.0,9.0,54,0.00,,---,0.01,VWS V13.01,2013-11-05 18:24:00,
2013-11-05 12:25:00,65.4,48.3,30.24,South,191,2.0,9.0,54,0.00,,---,0.01,VWS V13.01,2013-11-05 18:25:00,
2013-11-05 12:26:00,65.4,48.8,30.24,South,191,6.0,9.0,55,0.00,,---,0.01,VWS V13.01,2013-11-05 18:26:00,
2013-11-05 12:27:00,65.5,48.4,30.24,South,191,4.0,9.0,54,0.00,,---,0.01,VWS V13.01,2013-11-05 18:27:00,
2013-11-05 12:28:00,65.5,48.4,30.24,South,191,4.0,9.0,54,0.00,,---,0.01,VWS V13.01,2013-11-05 18:28:00,
2013-11-05 12:29:00,65.6,48.5,30.24,South,191,7.0,9.0,54,0.00,,---,0.01,VWS V13.01,2013-11-05 18:29:00,
2013-11-05 12:30:00,65.6,48.0,30.24,South,191,5.0,9.0,53,0.00,,---,0.01,VWS V13.01,2013-11-05 18:30:00,
2013-11-05 12:31:00,65.7,48.6,30.24,South,191,4.0,6.0,54,0.00,,---,0.01,VWS V13.01,2013-11-05 18:31:00,
2013-11-05 12:32:00,65.8,48.7,30.23,South,191,5.0,6.0,54,0.00,,---,0.01,VWS V13.01,2013-11-05 18:32:00,
2013-11-05 12:33:00,65.8,48.7,30.24,South,190,6.0,7.0,54,0.00,,---,0.01,VWS V13.01,2013-11-05 18:33:00,
2013-11-05 12:34:00,65.8,48.2,30.24,South,190,0.0,7.0,53,0.00,,---,0.01,VWS V13.01,2013-11-05 18:34:00,
2013-11-05 12:35:00,66.0,49.4,30.24,South,190,2.0,7.0,55,0.00,,---,0.01,VWS V13.01,2013-11-05 18:35:00,
2013-11-05 12:36:00,66.2,49.1,30.23,South,190,5.0,7.0,54,0.00,,---,0.01,VWS V13.01,2013-11-05 18:36:00,
2013-11-05 12:37:00,66.3,49.2,30.23,South,187,6.0,7.0,54,0.00,,---,0.01,VWS V13.01,2013-11-05 18:37:00,
2013-11-05 12:38:00,66.5,48.9,30.23,South,188,11.0,11.0,53,0.00,,---,0.01,VWS V13.01,2013-11-05 18:38:00,
2013-11-05 12:39:00,66.6,49.0,30.23,South,188,2.0,11.0,53,0.00,,---,0.01,VWS V13.01,2013-11-05 18:39:00,
2013-11-05 12:40:00,66.6,49.0,30.23,SSW,192,5.0,11.0,53,0.00,,---,0.01,VWS V13.01,2013-11-05 18:40:00,
2013-11-05 12:41:00,66.6,48.4,30.23,SSW,192,5.0,11.0,52,0.00,,---,0.01,VWS V13.01,2013-11-05 18:41:00,
2013-11-05 12:42:00,66.6,48.4,30.23,South,185,4.0,11.0,52,0.00,,---,0.01,VWS V13.01,2013-11-05 18:42:00,
2013-11-05 12:43:00,66.5,48.3,30.23,South,184,3.0,11.0,52,0.00,,---,0.01,VWS V13.01,2013-11-05 18:43:00,
2013-11-05 12:44:00,66.5,48.9,30.23,South,185,4.0,11.0,53,0.00,,---,0.01,VWS V13.01,2013-11-05 18:44:00,
2013-11-05 12:45:00,66.4,48.8,30.23,South,183,4.0,11.0,53,0.00,,---,0.01,VWS V13.01,2013-11-05 18:45:00,
2013-11-05 12:46:00,66.4,48.8,30.23,South,183,7.0,11.0,53,0.00,,---,0.01,VWS V13.01,2013-11-05 18:46:00,
2013-11-05 12:47:00,66.3,48.2,30.23,SSE,163,6.0,12.0,52,0.00,,---,0.01,VWS V13.01,2013-11-05 18:47:00,
2013-11-05 12:48:00,66.2,48.1,30.23,SSE,163,3.0,12.0,52,0.00,,---,0.01,VWS V13.01,2013-11-05 18:48:00,
2013-11-05 12:49:00,66.2,49.1,30.23,South,169,9.0,12.0,54,0.00,,---,0.01,VWS V13.01,2013-11-05 18:49:00,
2013-11-05 12:50:00,66.3,48.7,30.23,South,179,7.0,12.0,53,0.00,,---,0.01,VWS V13.01,2013-11-05 18:50:00,
2013-11-05 12:51:00,66.3,48.7,30.23,South,179,4.0,12.0,53,0.00,,---,0.01,VWS V13.01,2013-11-05 18:51:00,
2013-11-05 12:52:00,66.3,48.7,30.23,South,183,4.0,12.0,53,0.00,,---,0.01,VWS V13.01,2013-11-05 18:52:00,
2013-11-05 12:53:00,66.3,48.7,30.23,South,188,7.0,12.0,53,0.00,,---,0.01,VWS V13.01,2013-11-05 18:53:00,
2013-11-05 12:54:00,66.3,48.7,30.23,South,188,6.0,12.0,53,0.00,,---,0.01,VWS V13.01,2013-11-05 18:54:00,
2013-11-05 12:55:00,66.2,48.6,30.23,South,188,4.0,12.0,53,0.00,,---,0.01,VWS V13.01,2013-11-05 18:55:00,
2013-11-05 12:56:00,66.2,48.1,30.23,South,188,3.0,12.0,52,0.00,,---,0.01,VWS V13.01,2013-11-05 18:56:00,
2013-11-05 12:57:00,66.3,49.7,30.23,South,187,5.0,12.0,55,0.00,,---,0.01,VWS V13.01,2013-11-05 18:57:00,
2013-11-05 12:58:00,66.4,48.8,30.23,South,184,5.0,12.0,53,0.00,,---,0.01,VWS V13.01,2013-11-05 18:58:00,
2013-11-05 12:59:00,66.4,49.3,30.23,South,183,4.0,12.0,54,0.00,,---,0.01,VWS V13.01,2013-11-05 18:59:00,
2013-11-05 13:00:00,66.4,48.8,30.22,South,183,4.0,12.0,53,0.00,,---,0.01,VWS V13.01,2013-11-05 19:00:00,
2013-11-05 13:01:00,66.3,48.7,30.23,SSE,163,5.0,11.0,53,0.00,,---,0.01,VWS V13.01,2013-11-05 19:01:00,
2013-11-05 13:02:00,66.2,48.1,30.22,SSE,165,9.0,11.0,52,0.00,,---,0.01,VWS V13.01,2013-11-05 19:02:00,
2013-11-05 13:03:00,66.1,48.0,30.22,SSE,160,10.0,12.0,52,0.00,,---,0.01,VWS V13.01,2013-11-05 19:03:00,
2013-11-05 13:04:00,66.0,48.4,30.22,SSE,157,7.0,12.0,53,0.00,,---,0.01,VWS V13.01,2013-11-05 19:04:00,
2013-11-05 13:05:00,66.0,48.4,30.21,SSE,160,12.0,13.0,53,0.00,,---,0.01,VWS V13.01,2013-11-05 19:05:00,
2013-11-05 13:06:00,66.1,48.5,30.21,SSE,160,5.0,13.0,53,0.00,,---,0.01,VWS V13.01,2013-11-05 19:06:00,
2013-11-05 13:07:00,66.1,48.5,30.21,SSE,161,12.0,15.0,53,0.00,,---,0.01,VWS V13.01,2013-11-05 19:07:00,
2013-11-05 13:08:00,66.1,48.5,30.21,SSE,155,9.0,15.0,53,0.00,,---,0.01,VWS V13.01,2013-11-05 19:08:00,
2013-11-05 13:09:00,66.2,48.6,30.21,South,184,6.0,15.0,53,0.00,,---,0.01,VWS V13.01,2013-11-05 19:09:00,
2013-11-05 13:10:00,66.3,48.2,30.21,SSW,194,12.0,15.0,52,0.00,,---,0.01,VWS V13.01,2013-11-05 19:10:00,
2013-11-05 13:11:00,66.4,49.3,30.21,South,191,7.0,15.0,54,0.00,,---,0.01,VWS V13.01,2013-11-05 19:11:00,
2013-11-05 13:12:00,66.4,48.3,30.21,South,171,8.0,15.0,52,0.00,,---,0.01,VWS V13.01,2013-11-05 19:12:00,
2013-11-05 13:13:00,66.4,48.8,30.21,SSE,159,6.0,15.0,53,0.00,,---,0.01,VWS V13.01,2013-11-05 19:13:00,
2013-11-05 13:14:00,66.3,48.2,30.21,SSE,159,6.0,15.0,52,0.00,,---,0.01,VWS V13.01,2013-11-05 19:14:00,
2013-11-05 13:15:00,66.3,48.2,30.21,SSE,167,10.0,15.0,52,0.00,,---,0.01,VWS V13.01,2013-11-05 19:15:00,
2013-11-05 13:16:00,66.2,48.6,30.21,South,186,13.0,15.0,53,0.00,,---,0.01,VWS V13.01,2013-11-05 19:16:00,
2013-11-05 13:17:00,66.2,48.6,30.21,South,188,6.0,15.0,53,0.00,,---,0.01,VWS V13.01,2013-11-05 19:17:00,
2013-11-05 13:18:00,66.1,48.5,30.21,South,175,12.0,15.0,53,0.00,,---,0.01,VWS V13.01,2013-11-05 19:18:00,
2013-11-05 13:19:00,66.1,48.0,30.21,SSE,167,4.0,15.0,52,0.00,,---,0.01,VWS V13.01,2013-11-05 19:19:00,
2013-11-05 13:20:00,66.0,48.4,30.21,SSE,166,3.0,15.0,53,0.00,,---,0.01,VWS V13.01,2013-11-05 19:20:00,
2013-11-05 13:21:00,66.0,48.4,30.21,SSE,165,4.0,15.0,53,0.00,,---,0.01,VWS V13.01,2013-11-05 19:21:00,
2013-11-05 13:22:00,66.0,48.9,30.21,SSE,166,5.0,15.0,54,0.00,,---,0.01,VWS V13.01,2013-11-05 19:22:00,
2013-11-05 13:23:00,66.0,48.9,30.21,South,175,7.0,15.0,54,0.00,,---,0.01,VWS V13.01,2013-11-05 19:23:00,
2013-11-05 13:24:00,66.1,48.5,30.21,SSE,161,7.0,15.0,53,0.00,,---,0.01,VWS V13.01,2013-11-05 19:24:00,
2013-11-05 13:32:00,67.0,48.8,30.21,South,190,6.0,8.0,52,0.00,,---,0.01,VWS V13.01,2013-11-05 19:32:00,
2013-11-05 13:33:00,67.0,48.8,30.21,South,186,6.0,10.0,52,0.00,,---,0.01,VWS V13.01,2013-11-05 19:33:00,
2013-11-05 13:34:00,67.0,48.8,30.21,South,188,7.0,11.0,52,0.00,,---,0.01,VWS V13.01,2013-11-05 19:34:00,
2013-11-05 13:35:00,67.2,49.0,30.21,South,187,4.0,11.0,52,0.00,,---,0.01,VWS V13.01,2013-11-05 19:35:00,
2013-11-05 13:36:00,67.2,49.0,30.20,SE,140,11.0,14.0,52,0.00,,---,0.01,VWS V13.01,2013-11-05 19:36:00,
2013-11-05 13:37:00,67.2,48.5,30.20,SSE,159,4.0,14.0,51,0.00,,---,0.01,VWS V13.01,2013-11-05 19:37:00,
2013-11-05 13:38:00,67.2,48.5,30.20,SSE,161,2.0,14.0,51,0.00,,---,0.01,VWS V13.01,2013-11-05 19:38:00,
2013-11-05 13:39:00,67.2,49.0,30.20,SSE,165,6.0,14.0,52,0.00,,---,0.01,VWS V13.01,2013-11-05 19:39:00,
2013-11-05 13:40:00,67.3,48.6,30.20,SSE,155,10.0,14.0,51,0.00,,---,0.01,VWS V13.01,2013-11-05 19:40:00,
2013-11-05 13:41:00,67.2,48.5,30.20,South,169,6.0,14.0,51,0.00,,---,0.01,VWS V13.01,2013-11-05 19:41:00,
2013-11-05 13:42:00,67.2,49.0,30.20,South,174,5.0,14.0,52,0.00,,---,0.01,VWS V13.01,2013-11-05 19:42:00,
2013-11-05 13:43:00,67.2,49.0,30.20,South,174,4.0,14.0,52,0.00,,---,0.01,VWS V13.01,2013-11-05 19:43:00,
2013-11-05 13:44:00,67.3,49.1,30.20,South,179,3.0,14.0,52,0.00,,---,0.01,VWS V13.01,2013-11-05 19:44:00,
2013-11-05 13:45:00,67.3,49.1,30.20,South,186,4.0,14.0,52,0.00,,---,0.01,VWS V13.01,2013-11-05 19:45:00,
2013-11-05 13:46:00,67.4,49.2,30.20,South,191,5.0,14.0,52,0.00,,---,0.01,VWS V13.01,2013-11-05 19:46:00,
2013-11-05 13:47:00,67.4,49.7,30.20,SSW,196,6.0,14.0,53,0.00,,---,0.01,VWS V13.01,2013-11-05 19:47:00,
2013-11-05 13:48:00,67.5,49.3,30.20,SSW,196,2.0,14.0,52,0.00,,---,0.01,VWS V13.01,2013-11-05 19:48:00,
2013-11-05 13:49:00,67.6,49.9,30.20,SSW,196,3.0,14.0,53,0.00,,---,0.01,VWS V13.01,2013-11-05 19:49:00,
2013-11-05 13:50:00,67.7,48.9,30.20,South,190,5.0,14.0,51,0.00,,---,0.01,VWS V13.01,2013-11-05 19:50:00,
2013-11-05 13:51:00,67.7,49.5,30.20,SSW,203,9.0,14.0,52,0.00,,---,0.01,VWS V13.01,2013-11-05 19:51:00,
2013-11-05 13:52:00,67.7,49.5,30.20,SSW,203,4.0,14.0,52,0.00,,---,0.01,VWS V13.01,2013-11-05 19:52:00,
2013-11-05 13:53:00,67.7,49.5,30.20,SSW,204,5.0,14.0,52,0.00,,---,0.01,VWS V13.01,2013-11-05 19:53:00,
2013-11-05 13:54:00,67.8,49.5,30.20,SSW,199,5.0,14.0,52,0.00,,---,0.01,VWS V13.01,2013-11-05 19:54:00,
2013-11-05 13:55:00,67.8,49.5,30.20,South,185,5.0,14.0,52,0.00,,---,0.01,VWS V13.01,2013-11-05 19:55:00,
2013-11-05 13:56:00,67.7,48.9,30.20,South,186,5.0,14.0,51,0.00,,---,0.01,VWS V13.01,2013-11-05 19:56:00,
2013-11-05 13:57:00,67.7,48.9,30.20,South,183,3.0,14.0,51,0.00,,---,0.01,VWS V13.01,2013-11-05 19:57:00,
2013-11-05 13:58:00,67.7,49.5,30.20,South,183,3.0,14.0,52,0.00,,---,0.01,VWS V13.01,2013-11-05 19:58:00,
2013-11-05 13:59:00,67.6,48.8,30.20,South,190,10.0,14.0,51,0.00,,---,0.01,VWS V13.01,2013-11-05 19:59:00,
2013-11-05 14:00:00,67.5,48.8,30.20,South,190,4.0,14.0,51,0.00,,---,0.01,VWS V13.01,2013-11-05 20:00:00,
2013-11-05 14:01:00,67.4,49.2,30.20,South,190,4.0,6.0,52,0.00,,---,0.01,VWS V13.01,2013-11-05 20:01:00,
2013-11-05 14:02:00,67.4,49.2,30.20,South,190,5.0,6.0,52,0.00,,---,0.01,VWS V13.01,2013-11-05 20:02:00,
2013-11-05 14:03:00,67.3,49.6,30.20,South,172,5.0,10.0,53,0.00,,---,0.01,VWS V13.01,2013-11-05 20:03:00,
2013-11-05 14:04:00,67.3,49.1,30.20,South,172,4.0,10.0,52,0.00,,---,0.01,VWS V13.01,2013-11-05 20:04:00,
2013-11-05 14:05:00,67.2,49.5,30.20,South,180,6.0,10.0,53,0.00,,---,0.01,VWS V13.01,2013-11-05 20:05:00,
2013-11-05 14:06:00,67.3,49.6,30.20,South,180,4.0,10.0,53,0.00,,---,0.01,VWS V13.01,2013-11-05 20:06:00,
2013-11-05 14:07:00,67.3,49.6,30.20,South,180,5.0,10.0,53,0.00,,---,0.01,VWS V13.01,2013-11-05 20:07:00,
2013-11-05 14:08:00,67.4,49.7,30.20,South,187,5.0,10.0,53,0.00,,---,0.01,VWS V13.01,2013-11-05 20:08:00,
2013-11-05 14:09:00,67.4,49.2,30.20,South,186,7.0,10.0,52,0.00,,---,0.01,VWS V13.01,2013-11-05 20:09:00,
2013-11-05 14:10:00,67.6,49.4,30.20,South,184,6.0,11.0,52,0.00,,---,0.01,VWS V13.01,2013-11-05 20:10:00,
2013-11-05 14:11:00,67.6,49.4,30.20,SSW,200,5.0,13.0,52,0.00,,---,0.01,VWS V13.01,2013-11-05 20:11:00,
2013-11-05 14:12:00,67.6,49.4,30.20,SSW,203,8.0,13.0,52,0.00,,---,0.01,VWS V13.01,2013-11-05 20:12:00,
2013-11-05 14:13:00,67.7,50.0,30.20,SSW,201,5.0,13.0,53,0.00,,---,0.01,VWS V13.01,2013-11-05 20:13:00,
2013-11-05 14:14:00,67.7,49.5,30.20,SSW,200,4.0,13.0,52,0.00,,---,0.01,VWS V13.01,2013-11-05 20:14:00,
2013-11-05 14:15:00,67.9,49.7,30.20,SSW,200,5.0,13.0,52,0.00,,---,0.01,VWS V13.01,2013-11-05 20:15:00,
2013-11-05 14:16:00,67.9,49.7,30.20,SSW,200,3.0,13.0,52,0.00,,---,0.01,VWS V13.01,2013-11-05 20:16:00,
2013-11-05 14:17:00,67.9,49.7,30.20,SSW,198,8.0,14.0,52,0.00,,---,0.01,VWS V13.01,2013-11-05 20:17:00,
2013-11-05 14:18:00,68.0,49.2,30.20,SSW,200,7.0,14.0,51,0.00,,---,0.01,VWS V13.01,2013-11-05 20:18:00,
2013-11-05 14:19:00,68.0,49.7,30.20,SSW,199,3.0,14.0,52,0.00,,---,0.01,VWS V13.01,2013-11-05 20:19:00,
2013-11-05 14:20:00,68.1,49.8,30.20,SSW,200,7.0,14.0,52,0.00,,---,0.01,VWS V13.01,2013-11-05 20:20:00,
2013-11-05 14:21:00,68.1,49.3,30.19,SSW,198,7.0,14.0,51,0.00,,---,0.01,VWS V13.01,2013-11-05 20:21:00,
2013-11-05 14:22:00,68.1,49.3,30.20,South,188,5.0,14.0,51,0.00,,---,0.01,VWS V13.01,2013-11-05 20:22:00,
2013-11-05 14:23:00,68.1,49.3,30.19,South,188,4.0,14.0,51,0.00,,---,0.01,VWS V13.01,2013-11-05 20:23:00,
2013-11-05 14:24:00,68.2,49.9,30.19,South,187,6.0,14.0,52,0.00,,---,0.01,VWS V13.01,2013-11-05 20:24:00,
2013-11-05 14:25:00,68.3,49.5,30.19,South,188,0.0,14.0,51,0.00,,---,0.01,VWS V13.01,2013-11-05 20:25:00,
2013-11-05 14:26:00,68.3,50.0,30.19,South,187,7.0,14.0,52,0.00,,---,0.01,VWS V13.01,2013-11-05 20:26:00,
2013-11-05 14:27:00,68.4,49.6,30.19,SSW,199,4.0,14.0,51,0.00,,---,0.01,VWS V13.01,2013-11-05 20:27:00,
2013-11-05 14:28:00,68.4,49.6,30.19,South,184,3.0,14.0,51,0.00,,---,0.01,VWS V13.01,2013-11-05 20:28:00,
2013-11-05 14:29:00,68.4,50.1,30.19,South,190,10.0,14.0,52,0.00,,---,0.01,VWS V13.01,2013-11-05 20:29:00,
2013-11-05 14:30:00,68.5,49.7,30.19,South,190,5.0,14.0,51,0.00,,---,0.01,VWS V13.01,2013-11-05 20:30:00,
2013-11-05 14:31:00,68.5,49.7,30.19,SSW,200,7.0,13.0,51,0.00,,---,0.01,VWS V13.01,2013-11-05 20:31:00,
2013-11-05 14:32:00,68.5,49.7,30.19,SSW,195,6.0,13.0,51,0.00,,---,0.01,VWS V13.01,2013-11-05 20:32:00,
2013-11-05 14:33:00,68.5,49.7,30.19,SSW,195,7.0,13.0,51,0.00,,---,0.01,VWS V13.01,2013-11-05 20:33:00,
2013-11-05 14:34:00,68.4,49.6,30.19,SSW,194,3.0,13.0,51,0.00,,---,0.01,VWS V13.01,2013-11-05 20:34:00,
2013-11-05 14:35:00,68.4,49.6,30.19,SSW,195,8.0,13.0,51,0.00,,---,0.01,VWS V13.01,2013-11-05 20:35:00,
2013-11-05 14:36:00,68.4,49.6,30.19,SSW,195,4.0,13.0,51,0.00,,---,0.01,VWS V13.01,2013-11-05 20:36:00,
2013-11-05 14:37:00,68.4,50.1,30.19,SSW,195,3.0,13.0,52,0.00,,---,0.01,VWS V13.01,2013-11-05 20:37:00,
2013-11-05 14:38:00,68.5,50.2,30.19,SSW,195,4.0,13.0,52,0.00,,---,0.01,VWS V13.01,2013-11-05 20:38:00,
2013-11-05 14:39:00,68.5,49.7,30.19,SSW,195,6.0,13.0,51,0.00,,---,0.01,VWS V13.01,2013-11-05 20:39:00,
2013-11-05 14:40:00,68.5,49.7,30.19,SSW,195,6.0,13.0,51,0.00,,---,0.01,VWS V13.01,2013-11-05 20:40:00,
2013-11-05 14:41:00,68.5,49.7,30.19,SSW,195,4.0,13.0,51,0.00,,---,0.01,VWS V13.01,2013-11-05 20:41:00,
2013-11-05 14:42:00,68.4,49.6,30.19,SSW,195,2.0,13.0,51,0.00,,---,0.01,VWS V13.01,2013-11-05 20:42:00,
2013-11-05 14:43:00,68.4,50.1,30.19,SSW,195,3.0,13.0,52,0.00,,---,0.01,VWS V13.01,2013-11-05 20:43:00,
2013-11-05 14:44:00,68.3,49.5,30.19,South,184,7.0,13.0,51,0.00,,---,0.01,VWS V13.01,2013-11-05 20:44:00,
2013-11-05 14:45:00,68.2,49.4,30.19,South,169,6.0,13.0,51,0.00,,---,0.01,VWS V13.01,2013-11-05 20:45:00,
2013-11-05 14:46:00,68.0,49.2,30.19,South,169,4.0,13.0,51,0.00,,---,0.01,VWS V13.01,2013-11-05 20:46:00,
2013-11-05 14:47:00,67.9,49.1,30.18,South,169,5.0,13.0,51,0.00,,---,0.01,VWS V13.01,2013-11-05 20:47:00,
2013-11-05 14:48:00,67.8,49.5,30.18,South,169,4.0,13.0,52,0.00,,---,0.01,VWS V13.01,2013-11-05 20:48:00,
2013-11-05 14:49:00,67.6,49.4,30.19,South,169,3.0,13.0,52,0.00,,---,0.01,VWS V13.01,2013-11-05 20:49:00,
2013-11-05 14:50:00,67.6,49.4,30.18,South,169,3.0,13.0,52,0.00,,---,0.01,VWS V13.01,2013-11-05 20:50:00,
2013-11-05 14:51:00,67.5,49.3,30.18,South,169,6.0,13.0,52,0.00,,---,0.01,VWS V13.01,2013-11-05 20:51:00,
2013-11-05 14:52:00,67.4,49.2,30.18,South,169,3.0,13.0,52,0.00,,---,0.01,VWS V13.01,2013-11-05 20:52:00,
2013-11-05 14:53:00,67.3,49.6,30.18,South,169,3.0,13.0,53,0.00,,---,0.01,VWS V13.01,2013-11-05 20:53:00,
2013-11-05 14:54:00,67.2,49.5,30.18,South,169,4.0,13.0,53,0.00,,---,0.01,VWS V13.01,2013-11-05 20:54:00,
2013-11-05 14:55:00,67.1,49.4,30.18,South,169,2.0,13.0,53,0.00,,---,0.01,VWS V13.01,2013-11-05 20:55:00,
2013-11-05 14:56:00,67.0,49.3,30.18,South,169,3.0,13.0,53,0.00,,---,0.01,VWS V13.01,2013-11-05 20:56:00,
2013-11-05 14:57:00,67.0,49.3,30.18,South,169,4.0,13.0,53,0.00,,---,0.01,VWS V13.01,2013-11-05 20:57:00,
2013-11-05 14:58:00,67.0,49.3,30.18,South,169,3.0,13.0,53,0.00,,---,0.01,VWS V13.01,2013-11-05 20:58:00,
2013-11-05 14:59:00,66.9,49.2,30.18,South,169,0.0,13.0,53,0.00,,---,0.01,VWS V13.01,2013-11-05 20:59:00,
2013-11-05 15:00:00,66.9,49.7,30.18,South,169,1.0,13.0,54,0.00,,---,0.01,VWS V13.01,2013-11-05 21:00:00,
2013-11-05 15:01:00,66.8,49.6,30.18,South,169,1.0,3.0,54,0.00,,---,0.01,VWS V13.01,2013-11-05 21:01:00,
2013-11-05 15:02:00,66.8,49.6,30.18,South,169,3.0,4.0,54,0.00,,---,0.01,VWS V13.01,2013-11-05 21:02:00,
2013-11-05 15:03:00,66.8,49.6,30.18,South,169,0.0,4.0,54,0.00,,---,0.01,VWS V13.01,2013-11-05 21:03:00,
2013-11-05 15:04:00,66.8,49.6,30.18,South,169,3.0,4.0,54,0.00,,---,0.01,VWS V13.01,2013-11-05 21:04:00,
2013-11-05 15:05:00,66.8,49.6,30.18,South,169,4.0,4.0,54,0.00,,---,0.01,VWS V13.01,2013-11-05 21:05:00,
2013-11-05 15:06:00,66.8,49.6,30.18,South,169,1.0,4.0,54,0.00,,---,0.01,VWS V13.01,2013-11-05 21:06:00,
2013-11-05 15:07:00,66.8,49.6,30.18,South,169,1.0,4.0,54,0.00,,---,0.01,VWS V13.01,2013-11-05 21:07:00,
2013-11-05 15:08:00,66.8,49.6,30.18,South,169,0.0,4.0,54,0.00,,---,0.01,VWS V13.01,2013-11-05 21:08:00,
2013-11-05 15:09:00,66.9,50.2,30.18,South,169,0.0,4.0,55,0.00,,---,0.01,VWS V13.01,2013-11-05 21:09:00,
2013-11-05 15:10:00,66.8,49.6,30.18,South,169,0.0,4.0,54,0.00,,---,0.01,VWS V13.01,2013-11-05 21:10:00,
2013-11-05 15:11:00,66.8,49.6,30.18,South,169,0.0,4.0,54,0.00,,---,0.01,VWS V13.01,2013-11-05 21:11:00,
2013-11-05 15:12:00,66.8,49.6,30.18,South,169,2.0,4.0,54,0.00,,---,0.01,VWS V13.01,2013-11-05 21:12:00,
2013-11-05 15:13:00,66.8,49.6,30.18,South,169,0.0,4.0,54,0.00,,---,0.01,VWS V13.01,2013-11-05 21:13:00,
2013-11-05 15:14:00,66.8,49.6,30.18,South,169,0.0,4.0,54,0.00,,---,0.01,VWS V13.01,2013-11-05 21:14:00,
2013-11-05 15:15:00,66.8,49.6,30.18,South,169,2.0,4.0,54,0.00,,---,0.01,VWS V13.01,2013-11-05 21:15:00,
2013-11-05 15:16:00,66.7,49.5,30.18,South,169,3.0,4.0,54,0.00,,---,0.01,VWS V13.01,2013-11-05 21:16:00,
2013-11-05 15:17:00,66.7,49.5,30.18,South,169,1.0,4.0,54,0.00,,---,0.01,VWS V13.01,2013-11-05 21:17:00,
2013-11-05 15:18:00,66.6,50.0,30.18,South,169,0.0,4.0,55,0.00,,---,0.01,VWS V13.01,2013-11-05 21:18:00,
2013-11-05 15:19:00,66.6,50.0,30.18,South,169,0.0,4.0,55,0.00,,---,0.01,VWS V13.01,2013-11-05 21:19:00,
2013-11-05 15:20:00,66.6,50.0,30.18,South,169,0.0,4.0,55,0.00,,---,0.01,VWS V13.01,2013-11-05 21:20:00,
2013-11-05 15:21:00,66.5,49.8,30.18,South,169,0.0,4.0,55,0.00,,---,0.01,VWS V13.01,2013-11-05 21:21:00,
2013-11-05 15:22:00,66.5,49.8,30.18,South,169,0.0,4.0,55,0.00,,---,0.01,VWS V13.01,2013-11-05 21:22:00,
2013-11-05 15:23:00,66.4,50.2,30.18,South,169,0.0,4.0,56,0.00,,---,0.01,VWS V13.01,2013-11-05 21:23:00,
2013-11-05 15:24:00,66.4,50.2,30.18,South,169,0.0,4.0,56,0.00,,---,0.01,VWS V13.01,2013-11-05 21:24:00,
2013-11-05 15:25:00,66.3,50.2,30.18,South,169,0.0,4.0,56,0.00,,---,0.01,VWS V13.01,2013-11-05 21:25:00,
2013-11-05 15:26:00,66.3,50.2,30.18,South,169,1.0,4.0,56,0.00,,---,0.01,VWS V13.01,2013-11-05 21:26:00,
2013-11-05 15:27:00,66.2,50.1,30.17,South,169,1.0,4.0,56,0.00,,---,0.01,VWS V13.01,2013-11-05 21:27:00,
2013-11-05 15:28:00,66.2,50.1,30.17,South,169,2.0,4.0,56,0.00,,---,0.01,VWS V13.01,2013-11-05 21:28:00,
2013-11-05 15:29:00,66.1,50.0,30.18,South,169,0.0,4.0,56,0.00,,---,0.01,VWS V13.01,2013-11-05 21:29:00,
2013-11-05 15:30:00,66.1,50.4,30.18,South,169,0.0,0.0,57,0.00,,---,0.01,VWS V13.01,2013-11-05 21:30:00,
2013-11-05 15:31:00,66.1,50.0,30.18,South,169,0.0,0.0,56,0.00,,---,0.01,VWS V13.01,2013-11-05 21:31:00,
2013-11-05 15:32:00,66.0,49.9,30.17,South,169,0.0,0.0,56,0.00,,---,0.01,VWS V13.01,2013-11-05 21:32:00,
2013-11-05 15:33:00,66.0,50.3,30.17,South,169,0.0,0.0,57,0.00,,---,0.01,VWS V13.01,2013-11-05 21:33:00,
2013-11-05 15:34:00,66.0,50.3,30.17,South,169,2.0,2.0,57,0.00,,---,0.01,VWS V13.01,2013-11-05 21:34:00,
2013-11-05 15:35:00,65.9,49.8,30.17,South,169,2.0,3.0,56,0.00,,---,0.01,VWS V13.01,2013-11-05 21:35:00,
2013-11-05 15:36:00,65.9,50.2,30.17,South,169,0.0,3.0,57,0.00,,---,0.01,VWS V13.01,2013-11-05 21:36:00,
2013-11-05 15:37:00,65.9,50.2,30.17,South,169,0.0,3.0,57,0.00,,---,0.01,VWS V13.01,2013-11-05 21:37:00,
2013-11-05 15:38:00,65.8,49.7,30.17,South,169,0.0,3.0,56,0.00,,---,0.01,VWS V13.01,2013-11-05 21:38:00,
2013-11-05 15:39:00,65.8,50.2,30.17,South,169,0.0,3.0,57,0.00,,---,0.01,VWS V13.01,2013-11-05 21:39:00,
2013-11-05 15:40:00,65.8,49.7,30.17,South,169,0.0,3.0,56,0.00,,---,0.01,VWS V13.01,2013-11-05 21:40:00,
2013-11-05 15:41:00,65.8,50.2,30.17,South,169,0.0,3.0,57,0.00,,---,0.01,VWS V13.01,2013-11-05 21:41:00,
2013-11-05 15:42:00,65.8,50.2,30.17,South,169,1.0,3.0,57,0.00,,---,0.01,VWS V13.01,2013-11-05 21:42:00,
2013-11-05 15:43:00,65.8,50.2,30.17,South,169,0.0,3.0,57,0.00,,---,0.01,VWS V13.01,2013-11-05 21:43:00,
2013-11-05 15:44:00,65.9,50.2,30.17,South,169,0.0,3.0,57,0.00,,---,0.01,VWS V13.01,2013-11-05 21:44:00,
2013-11-05 15:45:00,65.9,50.2,30.17,South,169,0.0,3.0,57,0.00,,---,0.01,VWS V13.01,2013-11-05 21:45:00,
2013-11-05 15:46:00,65.9,50.2,30.17,South,169,0.0,3.0,57,0.00,,---,0.01,VWS V13.01,2013-11-05 21:46:00,
2013-11-05 15:47:00,65.9,50.7,30.17,South,169,0.0,3.0,58,0.00,,---,0.01,VWS V13.01,2013-11-05 21:47:00,
2013-11-05 15:48:00,65.9,50.2,30.17,South,169,0.0,3.0,57,0.00,,---,0.01,VWS V13.01,2013-11-05 21:48:00,
2013-11-05 15:49:00,66.0,50.3,30.17,South,169,3.0,4.0,57,0.00,,---,0.01,VWS V13.01,2013-11-05 21:49:00,
2013-11-05 15:50:00,66.0,49.9,30.17,South,169,2.0,4.0,56,0.00,,---,0.01,VWS V13.01,2013-11-05 21:50:00,
2013-11-05 15:51:00,66.0,50.3,30.17,South,169,1.0,4.0,57,0.00,,---,0.01,VWS V13.01,2013-11-05 21:51:00,
2013-11-05 15:52:00,66.0,50.3,30.17,South,169,0.0,4.0,57,0.00,,---,0.01,VWS V13.01,2013-11-05 21:52:00,
2013-11-05 15:53:00,66.0,50.3,30.17,South,169,0.0,4.0,57,0.00,,---,0.01,VWS V13.01,2013-11-05 21:53:00,
2013-11-05 15:54:00,66.0,50.3,30.17,South,169,0.0,4.0,57,0.00,,---,0.01,VWS V13.01,2013-11-05 21:54:00,
2013-11-05 15:55:00,66.0,50.3,30.17,South,169,0.0,4.0,57,0.00,,---,0.01,VWS V13.01,2013-11-05 21:55:00,
2013-11-05 15:56:00,65.9,50.7,30.17,South,169,0.0,4.0,58,0.00,,---,0.01,VWS V13.01,2013-11-05 21:56:00,
2013-11-05 15:57:00,65.9,50.7,30.17,South,169,0.0,4.0,58,0.00,,---,0.01,VWS V13.01,2013-11-05 21:57:00,
2013-11-05 15:58:00,65.8,50.6,30.17,South,169,0.0,4.0,58,0.00,,---,0.01,VWS V13.01,2013-11-05 21:58:00,
2013-11-05 15:59:00,65.8,50.6,30.17,South,169,0.0,4.0,58,0.00,,---,0.01,VWS V13.01,2013-11-05 21:59:00,
2013-11-05 16:00:00,65.7,50.5,30.17,South,169,0.0,4.0,58,0.00,,---,0.01,VWS V13.01,2013-11-05 22:00:00,
2013-11-05 16:01:00,65.7,51.0,30.17,South,169,0.0,0.0,59,0.00,,---,0.01,VWS V13.01,2013-11-05 22:01:00,
2013-11-05 16:02:00,65.6,50.9,30.17,South,169,0.0,0.0,59,0.00,,---,0.01,VWS V13.01,2013-11-05 22:02:00,
2013-11-05 16:03:00,65.5,50.3,30.17,South,169,0.0,0.0,58,0.00,,---,0.01,VWS V13.01,2013-11-05 22:03:00,
2013-11-05 16:04:00,65.4,50.2,30.17,South,169,0.0,0.0,58,0.00,,---,0.01,VWS V13.01,2013-11-05 22:04:00,
2013-11-05 16:05:00,65.4,50.7,30.17,South,169,0.0,0.0,59,0.00,,---,0.01,VWS V13.01,2013-11-05 22:05:00,
2013-11-05 16:06:00,65.3,50.6,30.17,South,169,0.0,0.0,59,0.00,,---,0.01,VWS V13.01,2013-11-05 22:06:00,
2013-11-05 16:07:00,65.2,50.5,30.17,South,169,0.0,0.0,59,0.00,,---,0.01,VWS V13.01,2013-11-05 22:07:00,
2013-11-05 16:08:00,65.1,50.9,30.17,South,169,0.0,0.0,60,0.00,,---,0.01,VWS V13.01,2013-11-05 22:08:00,
2013-11-05 16:09:00,65.0,50.3,30.17,South,169,0.0,0.0,59,0.00,,---,0.01,VWS V13.01,2013-11-05 22:09:00,
2013-11-05 16:10:00,64.9,50.7,30.17,South,169,0.0,0.0,60,0.00,,---,0.01,VWS V13.01,2013-11-05 22:10:00,
2013-11-05 16:11:00,64.8,51.0,30.17,South,169,0.0,0.0,61,0.00,,---,0.01,VWS V13.01,2013-11-05 22:11:00,
2013-11-05 16:12:00,64.7,51.0,30.17,South,169,0.0,0.0,61,0.00,,---,0.01,VWS V13.01,2013-11-05 22:12:00,
2013-11-05 16:13:00,64.6,50.9,30.17,South,169,0.0,0.0,61,0.00,,---,0.01,VWS V13.01,2013-11-05 22:13:00,
2013-11-05 16:14:00,64.5,50.8,30.17,South,169,0.0,0.0,61,0.00,,---,0.01,VWS V13.01,2013-11-05 22:14:00,
2013-11-05 16:15:00,64.4,51.1,30.17,South,169,0.0,0.0,62,0.00,,---,0.01,VWS V13.01,2013-11-05 22:15:00,
2013-11-05 16:16:00,64.3,50.6,30.17,South,169,0.0,0.0,61,0.00,,---,0.01,VWS V13.01,2013-11-05 22:16:00,
2013-11-05 16:17:00,64.1,50.8,30.17,South,169,0.0,0.0,62,0.00,,---,0.01,VWS V13.01,2013-11-05 22:17:00,
2013-11-05 16:18:00,64.0,50.7,30.17,South,169,0.0,0.0,62,0.00,,---,0.01,VWS V13.01,2013-11-05 22:18:00,
2013-11-05 16:19:00,63.9,50.6,30.17,South,169,0.0,0.0,62,0.00,,---,0.01,VWS V13.01,2013-11-05 22:19:00,
2013-11-05 16:20:00,63.8,50.5,30.17,South,169,0.0,0.0,62,0.00,,---,0.01,VWS V13.01,2013-11-05 22:20:00,
2013-11-05 16:21:00,63.7,50.5,30.17,South,169,0.0,0.0,62,0.00,,---,0.01,VWS V13.01,2013-11-05 22:21:00,
2013-11-05 16:22:00,63.6,50.4,30.17,South,169,0.0,0.0,62,0.00,,---,0.01,VWS V13.01,2013-11-05 22:22:00,
2013-11-05 16:23:00,63.5,50.7,30.17,South,169,0.0,0.0,63,0.00,,---,0.01,VWS V13.01,2013-11-05 22:23:00,
2013-11-05 16:24:00,63.3,50.5,30.17,South,169,0.0,0.0,63,0.00,,---,0.01,VWS V13.01,2013-11-05 22:24:00,
2013-11-05 16:25:00,63.2,50.8,30.17,South,169,0.0,0.0,64,0.00,,---,0.01,VWS V13.01,2013-11-05 22:25:00,
2013-11-05 16:26:00,63.1,50.7,30.17,South,169,0.0,0.0,64,0.00,,---,0.01,VWS V13.01,2013-11-05 22:26:00,
2013-11-05 16:27:00,63.0,50.7,30.17,South,169,0.0,0.0,64,0.00,,---,0.01,VWS V13.01,2013-11-05 22:27:00,
2013-11-05 16:28:00,62.8,50.5,30.17,South,169,0.0,0.0,64,0.00,,---,0.01,VWS V13.01,2013-11-05 22:28:00,
2013-11-05 16:29:00,62.7,50.8,30.17,South,169,0.0,0.0,65,0.00,,---,0.01,VWS V13.01,2013-11-05 22:29:00,
2013-11-05 16:30:00,62.6,50.7,30.17,South,169,0.0,0.0,65,0.00,,---,0.01,VWS V13.01,2013-11-05 22:30:00,
2013-11-05 16:31:00,62.4,50.9,30.17,South,169,0.0,0.0,66,0.00,,---,0.01,VWS V13.01,2013-11-05 22:31:00,
2013-11-05 16:32:00,62.3,50.4,30.17,South,169,0.0,0.0,65,0.00,,---,0.01,VWS V13.01,2013-11-05 22:32:00,
2013-11-05 16:33:00,62.2,50.3,30.17,South,169,0.0,0.0,65,0.00,,---,0.01,VWS V13.01,2013-11-05 22:33:00,
2013-11-05 16:34:00,62.1,50.6,30.17,South,169,0.0,0.0,66,0.00,,---,0.01,VWS V13.01,2013-11-05 22:34:00,
2013-11-05 16:35:00,62.0,50.5,30.17,South,169,0.0,0.0,66,0.00,,---,0.01,VWS V13.01,2013-11-05 22:35:00,
2013-11-05 16:36:00,61.9,50.4,30.17,South,169,0.0,0.0,66,0.00,,---,0.01,VWS V13.01,2013-11-05 22:36:00,
2013-11-05 16:37:00,61.8,50.3,30.17,South,169,0.0,0.0,66,0.00,,---,0.01,VWS V13.01,2013-11-05 22:37:00,
2013-11-05 16:38:00,61.7,50.2,30.17,South,169,0.0,0.0,66,0.00,,---,0.01,VWS V13.01,2013-11-05 22:38:00,
2013-11-05 16:39:00,61.6,50.1,30.17,South,169,0.0,0.0,66,0.00,,---,0.01,VWS V13.01,2013-11-05 22:39:00,
2013-11-05 16:40:00,61.5,50.0,30.17,South,169,0.0,0.0,66,0.00,,---,0.01,VWS V13.01,2013-11-05 22:40:00,
2013-11-05 16:41:00,61.4,50.4,30.17,South,169,0.0,0.0,67,0.00,,---,0.01,VWS V13.01,2013-11-05 22:41:00,
2013-11-05 16:42:00,61.3,50.3,30.17,South,169,0.0,0.0,67,0.00,,---,0.01,VWS V13.01,2013-11-05 22:42:00,
2013-11-05 16:43:00,61.2,50.2,30.17,South,169,0.0,0.0,67,0.00,,---,0.01,VWS V13.01,2013-11-05 22:43:00,
2013-11-05 16:44:00,61.1,50.5,30.17,South,169,0.0,0.0,68,0.00,,---,0.01,VWS V13.01,2013-11-05 22:44:00,
2013-11-05 16:45:00,60.9,50.3,30.17,South,169,0.0,0.0,68,0.00,,---,0.01,VWS V13.01,2013-11-05 22:45:00,
2013-11-05 16:46:00,60.9,50.3,30.17,South,169,0.0,0.0,68,0.00,,---,0.01,VWS V13.01,2013-11-05 22:46:00,
2013-11-05 16:47:00,60.8,50.2,30.17,South,169,0.0,0.0,68,0.00,,---,0.01,VWS V13.01,2013-11-05 22:47:00,
2013-11-05 16:48:00,60.7,50.1,30.17,South,169,0.0,0.0,68,0.00,,---,0.01,VWS V13.01,2013-11-05 22:48:00,
2013-11-05 16:49:00,60.6,50.0,30.17,South,169,0.0,0.0,68,0.00,,---,0.01,VWS V13.01,2013-11-05 22:49:00,
2013-11-05 16:50:00,60.5,49.9,30.17,South,169,0.0,0.0,68,0.00,,---,0.01,VWS V13.01,2013-11-05 22:50:00,
2013-11-05 16:51:00,60.4,49.8,30.17,South,169,0.0,0.0,68,0.00,,---,0.01,VWS V13.01,2013-11-05 22:51:00,
2013-11-05 16:52:00,60.4,49.8,30.17,South,169,0.0,0.0,68,0.00,,---,0.01,VWS V13.01,2013-11-05 22:52:00,
2013-11-05 16:53:00,60.4,49.8,30.17,South,169,0.0,0.0,68,0.00,,---,0.01,VWS V13.01,2013-11-05 22:53:00,
2013-11-05 16:54:00,60.3,49.7,30.17,South,169,0.0,0.0,68,0.00,,---,0.01,VWS V13.01,2013-11-05 22:54:00,
2013-11-05 16:55:00,60.3,49.7,30.17,South,169,0.0,0.0,68,0.00,,---,0.01,VWS V13.01,2013-11-05 22:55:00,
2013-11-05 16:56:00,60.3,49.7,30.17,South,169,0.0,0.0,68,0.00,,---,0.01,VWS V13.01,2013-11-05 22:56:00,
2013-11-05 16:57:00,60.2,49.6,30.17,South,169,0.0,0.0,68,0.00,,---,0.01,VWS V13.01,2013-11-05 22:57:00,
2013-11-05 16:58:00,60.2,50.0,30.17,South,169,0.0,0.0,69,0.00,,---,0.01,VWS V13.01,2013-11-05 22:58:00,
2013-11-05 16:59:00,60.2,50.0,30.17,South,169,0.0,0.0,69,0.00,,---,0.01,VWS V13.01,2013-11-05 22:59:00,
2013-11-05 17:00:00,60.1,50.3,30.17,South,169,0.0,0.0,70,0.00,,---,0.01,VWS V13.01,2013-11-05 23:00:00,
2013-11-05 17:01:00,60.1,50.3,30.18,South,169,0.0,0.0,70,0.00,,---,0.01,VWS V13.01,2013-11-05 23:01:00,
2013-11-05 17:02:00,60.0,50.2,30.18,South,169,0.0,0.0,70,0.00,,---,0.01,VWS V13.01,2013-11-05 23:02:00,
2013-11-05 17:03:00,60.0,50.2,30.18,South,169,0.0,0.0,70,0.00,,---,0.01,VWS V13.01,2013-11-05 23:03:00,
2013-11-05 17:04:00,59.8,50.0,30.18,South,169,0.0,0.0,70,0.00,,---,0.01,VWS V13.01,2013-11-05 23:04:00,
2013-11-05 17:05:00,59.8,50.0,30.18,South,169,0.0,0.0,70,0.00,,---,0.01,VWS V13.01,2013-11-05 23:05:00,
2013-11-05 17:06:00,59.7,50.3,30.17,South,169,0.0,0.0,71,0.00,,---,0.01,VWS V13.01,2013-11-05 23:06:00,
2013-11-05 17:07:00,59.6,50.2,30.18,South,169,0.0,0.0,71,0.00,,---,0.01,VWS V13.01,2013-11-05 23:07:00,
2013-11-05 17:08:00,59.5,50.1,30.18,South,169,0.0,0.0,71,0.00,,---,0.01,VWS V13.01,2013-11-05 23:08:00,
2013-11-05 17:09:00,59.4,50.0,30.18,South,169,0.0,0.0,71,0.00,,---,0.01,VWS V13.01,2013-11-05 23:09:00,
2013-11-05 17:10:00,59.4,50.0,30.18,South,169,0.0,0.0,71,0.00,,---,0.01,VWS V13.01,2013-11-05 23:10:00,
2013-11-05 17:11:00,59.3,49.9,30.18,South,169,0.0,0.0,71,0.00,,---,0.01,VWS V13.01,2013-11-05 23:11:00,
2013-11-05 17:12:00,59.2,49.8,30.18,South,169,0.0,2.0,71,0.00,,---,0.01,VWS V13.01,2013-11-05 23:12:00,
2013-11-05 17:13:00,59.1,49.7,30.18,South,169,0.0,2.0,71,0.00,,---,0.01,VWS V13.01,2013-11-05 23:13:00,
2013-11-05 17:14:00,59.0,49.6,30.18,South,169,0.0,2.0,71,0.00,,---,0.01,VWS V13.01,2013-11-05 23:14:00,
2013-11-05 17:15:00,59.0,49.6,30.18,South,169,0.0,2.0,71,0.00,,---,0.01,VWS V13.01,2013-11-05 23:15:00,
2013-11-05 17:16:00,59.0,49.6,30.18,South,169,0.0,2.0,71,0.00,,---,0.01,VWS V13.01,2013-11-05 23:16:00,
2013-11-05 17:17:00,59.0,50.0,30.18,South,169,0.0,2.0,72,0.00,,---,0.01,VWS V13.01,2013-11-05 23:17:00,
2013-11-05 17:18:00,59.0,50.0,30.18,South,169,0.0,2.0,72,0.00,,---,0.01,VWS V13.01,2013-11-05 23:18:00,
2013-11-05 17:19:00,59.0,50.0,30.18,South,169,0.0,2.0,72,0.00,,---,0.01,VWS V13.01,2013-11-05 23:19:00,
2013-11-05 17:20:00,59.0,50.0,30.18,South,169,0.0,2.0,72,0.00,,---,0.01,VWS V13.01,2013-11-05 23:20:00,
2013-11-05 17:21:00,59.0,50.0,30.18,South,169,0.0,2.0,72,0.00,,---,0.01,VWS V13.01,2013-11-05 23:21:00,
2013-11-05 17:22:00,58.8,50.2,30.18,South,169,0.0,2.0,73,0.00,,---,0.01,VWS V13.01,2013-11-05 23:22:00,
2013-11-05 17:23:00,58.7,50.1,30.18,South,169,0.0,2.0,73,0.00,,---,0.01,VWS V13.01,2013-11-05 23:23:00,
2013-11-05 17:24:00,58.7,50.1,30.18,South,169,0.0,2.0,73,0.00,,---,0.01,VWS V13.01,2013-11-05 23:24:00,
2013-11-05 17:25:00,58.6,50.0,30.18,South,169,0.0,2.0,73,0.00,,---,0.01,VWS V13.01,2013-11-05 23:25:00,
2013-11-05 17:26:00,58.6,50.0,30.18,South,169,0.0,2.0,73,0.00,,---,0.01,VWS V13.01,2013-11-05 23:26:00,
2013-11-05 17:27:00,58.5,49.9,30.18,South,169,0.0,2.0,73,0.00,,---,0.01,VWS V13.01,2013-11-05 23:27:00,
2013-11-05 17:28:00,58.4,49.8,30.18,South,169,0.0,2.0,73,0.00,,---,0.01,VWS V13.01,2013-11-05 23:28:00,
2013-11-05 17:29:00,58.4,49.8,30.18,South,169,0.0,2.0,73,0.00,,---,0.01,VWS V13.01,2013-11-05 23:29:00,
2013-11-05 17:30:00,58.3,49.7,30.18,South,169,0.0,2.0,73,0.00,,---,0.01,VWS V13.01,2013-11-05 23:30:00,
2013-11-05 17:31:00,58.3,49.7,30.18,South,169,0.0,0.0,73,0.00,,---,0.01,VWS V13.01,2013-11-05 23:31:00,
2013-11-05 17:32:00,58.2,49.6,30.18,South,169,0.0,0.0,73,0.00,,---,0.01,VWS V13.01,2013-11-05 23:32:00,
2013-11-05 17:33:00,58.2,49.6,30.18,South,169,0.0,0.0,73,0.00,,---,0.01,VWS V13.01,2013-11-05 23:33:00,
2013-11-05 17:34:00,58.2,49.6,30.18,South,169,0.0,0.0,73,0.00,,---,0.01,VWS V13.01,2013-11-05 23:34:00,
2013-11-05 17:35:00,58.2,50.0,30.18,South,169,0.0,1.0,74,0.00,,---,0.01,VWS V13.01,2013-11-05 23:35:00,
2013-11-05 17:36:00,58.2,50.0,30.18,South,169,0.0,1.0,74,0.00,,---,0.01,VWS V13.01,2013-11-05 23:36:00,
2013-11-05 17:37:00,58.2,50.0,30.18,South,169,0.0,1.0,74,0.00,,---,0.01,VWS V13.01,2013-11-05 23:37:00,
2013-11-05 17:38:00,58.2,50.0,30.18,South,169,0.0,1.0,74,0.00,,---,0.01,VWS V13.01,2013-11-05 23:38:00,
2013-11-05 17:39:00,58.2,50.0,30.18,South,169,0.0,1.0,74,0.00,,---,0.01,VWS V13.01,2013-11-05 23:39:00,
2013-11-05 17:40:00,58.2,50.0,30.18,South,169,0.0,1.0,74,0.00,,---,0.01,VWS V13.01,2013-11-05 23:40:00,
2013-11-05 17:41:00,58.2,50.0,30.18,South,169,0.0,1.0,74,0.00,,---,0.01,VWS V13.01,2013-11-05 23:41:00,
2013-11-05 17:42:00,58.2,50.0,30.18,South,169,0.0,1.0,74,0.00,,---,0.01,VWS V13.01,2013-11-05 23:42:00,
2013-11-05 17:43:00,58.3,50.1,30.18,South,169,0.0,1.0,74,0.00,,---,0.01,VWS V13.01,2013-11-05 23:43:00,
2013-11-05 17:44:00,58.3,50.1,30.18,South,169,0.0,1.0,74,0.00,,---,0.01,VWS V13.01,2013-11-05 23:44:00,
2013-11-05 17:45:00,58.4,50.2,30.18,South,169,0.0,1.0,74,0.00,,---,0.01,VWS V13.01,2013-11-05 23:45:00,
2013-11-05 17:46:00,58.4,50.2,30.18,South,169,0.0,1.0,74,0.00,,---,0.01,VWS V13.01,2013-11-05 23:46:00,
2013-11-05 17:47:00,58.5,50.2,30.18,South,169,3.0,3.0,74,0.00,,---,0.01,VWS V13.01,2013-11-05 23:47:00,
2013-11-05 17:48:00,58.6,50.3,30.18,South,169,1.0,3.0,74,0.00,,---,0.01,VWS V13.01,2013-11-05 23:48:00,
2013-11-05 17:49:00,58.8,50.5,30.18,South,169,2.0,3.0,74,0.00,,---,0.01,VWS V13.01,2013-11-05 23:49:00,
2013-11-05 17:50:00,59.0,50.7,30.18,South,169,0.0,3.0,74,0.00,,---,0.01,VWS V13.01,2013-11-05 23:50:00,
2013-11-05 17:51:00,59.0,50.7,30.18,South,169,2.0,3.0,74,0.00,,---,0.01,VWS V13.01,2013-11-05 23:51:00,
2013-11-05 17:52:00,59.0,50.4,30.18,South,169,1.0,3.0,73,0.00,,---,0.01,VWS V13.01,2013-11-05 23:52:00,
2013-11-05 17:53:00,59.1,50.5,30.18,South,169,0.0,3.0,73,0.00,,---,0.01,VWS V13.01,2013-11-05 23:53:00,
2013-11-05 17:54:00,59.4,50.8,30.18,South,169,3.0,3.0,73,0.00,,---,0.01,VWS V13.01,2013-11-05 23:54:00,
2013-11-05 17:55:00,59.6,51.0,30.18,South,169,2.0,3.0,73,0.00,,---,0.01,VWS V13.01,2013-11-05 23:55:00,
2013-11-05 17:56:00,59.7,50.7,30.18,South,169,1.0,3.0,72,0.00,,---,0.01,VWS V13.01,2013-11-05 23:56:00,
2013-11-05 17:57:00,59.9,50.9,30.18,South,169,2.0,4.0,72,0.00,,---,0.01,VWS V13.01,2013-11-05 23:57:00,
2013-11-05 17:58:00,60.0,51.0,30.18,South,169,1.0,4.0,72,0.00,,---,0.01,VWS V13.01,2013-11-05 23:58:00,